Time,TemperatureF,DewpointF,PressureIn,WindDirection,WindDirectionDegrees,WindSpeedMPH,WindSpeedGustMPH,Humidity,HourlyPrecipIn,Conditions,Clouds,dailyrainin,SolarRadiationWatts/m^2,SoftwareType,DateUTC
2013-03-05 00:00:00,27.4,21.4,30.15,East,85,3.0,3.0,78,0.00,,,0.00,0,Wunderground v.1.15,2013-03-05 06:00:00,
2013-03-05 00:03:00,27.4,21.4,30.14,ENE,72,3.0,4.0,78,0.00,,,0.00,0,Wunderground v.1.15,2013-03-05 06:03:00,
2013-03-05 00:05:00,27.3,21.6,30.15,ENE,78,3.0,4.0,79,0.00,,,0.00,0,Wunderground v.1.15,2013-03-05 06:05:00,
2013-03-05 00:06:00,27.3,21.6,30.14,East,94,3.0,5.0,79,0.00,,,0.00,0,Wunderground v.1.15,2013-03-05 06:06:00,
2013-03-05 00:08:00,27.3,21.6,30.14,ENE,77,3.0,5.0,79,0.00,,,0.00,0,Wunderground v.1.15,2013-03-05 06:08:00,
2013-03-05 00:10:00,27.2,21.5,30.14,ENE,76,3.0,3.0,79,0.00,,,0.00,0,Wunderground v.1.15,2013-03-05 06:10:00,
2013-03-05 00:12:00,27.2,21.8,30.14,East,94,4.0,4.0,80,0.00,,,0.00,0,Wunderground v.1.15,2013-03-05 06:12:00,
2013-03-05 00:14:00,27.2,21.8,30.14,East,94,3.0,4.0,80,0.00,,,0.00,0,Wunderground v.1.15,2013-03-05 06:14:00,
2013-03-05 00:15:00,27.1,22.0,30.14,East,94,3.0,4.0,81,0.00,,,0.00,0,Wunderground v.1.15,2013-03-05 06:15:00,
2013-03-05 00:16:00,27.1,22.0,30.14,East,94,3.0,4.0,81,0.00,,,0.00,0,Wunderground v.1.15,2013-03-05 06:16:00,
2013-03-05 00:19:00,27.1,22.0,30.13,East,94,2.0,4.0,81,0.00,,,0.00,0,Wunderground v.1.15,2013-03-05 06:19:00,
2013-03-05 00:21:00,27.0,21.9,30.13,East,94,2.0,4.0,81,0.00,,,0.00,0,Wunderground v.1.15,2013-03-05 06:21:00,
2013-03-05 00:23:00,27.0,21.9,30.13,NE,44,2.0,5.0,81,0.00,,,0.00,0,Wunderground v.1.15,2013-03-05 06:23:00,
2013-03-05 00:24:00,27.0,21.9,30.13,NE,45,3.0,5.0,81,0.00,,,0.00,0,Wunderground v.1.15,2013-03-05 06:24:00,
2013-03-05 00:26:00,27.0,21.9,30.13,NE,55,3.0,5.0,81,0.00,,,0.00,0,Wunderground v.1.15,2013-03-05 06:26:00,
2013-03-05 00:30:00,27.0,21.9,30.13,ENE,75,4.0,4.0,81,0.00,,,0.00,0,Wunderground v.1.15,2013-03-05 06:30:00,
2013-03-05 00:31:00,27.0,21.9,30.13,NE,55,4.0,4.0,81,0.00,,,0.00,0,Wunderground v.1.15,2013-03-05 06:31:00,
2013-03-05 00:33:00,27.0,21.9,30.13,NNE,28,4.0,4.0,81,0.00,,,0.00,0,Wunderground v.1.15,2013-03-05 06:33:00,
2013-03-05 00:35:00,27.0,21.9,30.13,East,86,4.0,4.0,81,0.00,,,0.00,0,Wunderground v.1.15,2013-03-05 06:35:00,
2013-03-05 00:36:00,27.0,21.9,30.13,NE,49,4.0,4.0,81,0.00,,,0.00,0,Wunderground v.1.15,2013-03-05 06:36:00,
2013-03-05 00:37:00,27.0,21.9,30.13,NE,55,3.0,5.0,81,0.00,,,0.00,0,Wunderground v.1.15,2013-03-05 06:37:00,
2013-03-05 00:40:00,27.0,21.9,30.13,NE,46,3.0,3.0,81,0.00,,,0.00,0,Wunderground v.1.15,2013-03-05 06:40:00,
2013-03-05 00:42:00,27.0,21.9,30.13,NE,35,3.0,4.0,81,0.00,,,0.00,0,Wunderground v.1.15,2013-03-05 06:42:00,
2013-03-05 00:43:00,27.0,21.9,30.13,NNE,27,3.0,5.0,81,0.00,,,0.00,0,Wunderground v.1.15,2013-03-05 06:43:00,
2013-03-05 00:45:00,27.0,22.2,30.13,NNE,32,3.0,9.0,82,0.00,,,0.00,0,Wunderground v.1.15,2013-03-05 06:45:00,
2013-03-05 00:47:00,27.0,22.2,30.13,North,5,4.0,9.0,82,0.00,,,0.00,0,Wunderground v.1.15,2013-03-05 06:47:00,
2013-03-05 00:48:00,27.0,22.2,30.13,NNE,31,4.0,9.0,82,0.00,,,0.00,0,Wunderground v.1.15,2013-03-05 06:48:00,
2013-03-05 00:53:00,26.9,22.4,30.13,ENE,76,5.0,6.0,83,0.00,,,0.00,0,Wunderground v.1.15,2013-03-05 06:53:00,
2013-03-05 00:54:00,26.9,22.4,30.13,NE,37,5.0,6.0,83,0.00,,,0.00,0,Wunderground v.1.15,2013-03-05 06:54:00,
2013-03-05 00:56:00,26.8,22.3,30.12,NE,48,5.0,6.0,83,0.00,,,0.00,0,Wunderground v.1.15,2013-03-05 06:56:00,
2013-03-05 01:00:00,26.7,22.2,30.13,NNE,23,5.0,5.0,83,0.00,,,0.00,0,Wunderground v.1.15,2013-03-05 07:00:00,
2013-03-05 01:02:00,26.7,22.2,30.13,NE,38,4.0,5.0,83,0.00,,,0.00,0,Wunderground v.1.15,2013-03-05 07:02:00,
2013-03-05 01:03:00,26.7,22.2,30.12,NE,51,4.0,5.0,83,0.00,,,0.00,0,Wunderground v.1.15,2013-03-05 07:03:00,
2013-03-05 01:05:00,26.7,22.2,30.12,NNE,30,3.0,5.0,83,0.00,,,0.00,0,Wunderground v.1.15,2013-03-05 07:05:00,
2013-03-05 01:09:00,26.6,22.1,30.12,NNE,28,3.0,5.0,83,0.00,,,0.00,0,Wunderground v.1.15,2013-03-05 07:09:00,
2013-03-05 01:10:00,26.6,22.1,30.12,NNE,31,3.0,3.0,83,0.00,,,0.00,0,Wunderground v.1.15,2013-03-05 07:10:00,
2013-03-05 01:14:00,26.6,22.1,30.12,NE,51,3.0,7.0,83,0.00,,,0.00,0,Wunderground v.1.15,2013-03-05 07:14:00,
2013-03-05 01:15:00,26.6,21.8,30.12,ENE,67,3.0,7.0,82,0.00,,,0.00,0,Wunderground v.1.15,2013-03-05 07:15:00,
2013-03-05 01:18:00,26.6,21.8,30.12,ENE,69,4.0,7.0,82,0.00,,,0.00,0,Wunderground v.1.15,2013-03-05 07:18:00,
2013-03-05 01:20:00,26.5,21.7,30.12,NE,45,4.0,5.0,82,0.00,,,0.00,0,Wunderground v.1.15,2013-03-05 07:20:00,
2013-03-05 01:23:00,26.5,21.7,30.12,NE,36,5.0,6.0,82,0.00,,,0.00,0,Wunderground v.1.15,2013-03-05 07:23:00,
2013-03-05 01:25:00,26.5,21.7,30.12,ENE,59,5.0,6.0,82,0.00,,,0.00,0,Wunderground v.1.15,2013-03-05 07:25:00,
2013-03-05 01:27:00,26.5,21.7,30.12,North,5,4.0,6.0,82,0.00,,,0.00,0,Wunderground v.1.15,2013-03-05 07:27:00,
2013-03-05 01:28:00,26.5,21.7,30.12,NE,37,4.0,6.0,82,0.00,,,0.00,0,Wunderground v.1.15,2013-03-05 07:28:00,
2013-03-05 01:30:00,26.5,21.7,30.12,NE,36,4.0,4.0,82,0.00,,,0.00,0,Wunderground v.1.15,2013-03-05 07:30:00,
2013-03-05 01:32:00,26.5,21.7,30.12,East,80,4.0,8.0,82,0.00,,,0.00,0,Wunderground v.1.15,2013-03-05 07:32:00,
2013-03-05 01:33:00,26.5,21.7,30.12,ENE,57,4.0,8.0,82,0.00,,,0.00,0,Wunderground v.1.15,2013-03-05 07:33:00,
2013-03-05 01:35:00,26.5,21.7,30.12,NNE,21,4.0,8.0,82,0.00,,,0.00,0,Wunderground v.1.15,2013-03-05 07:35:00,
2013-03-05 01:36:00,26.5,21.7,30.12,NE,34,4.0,8.0,82,0.00,,,0.00,0,Wunderground v.1.15,2013-03-05 07:36:00,
2013-03-05 01:38:00,26.5,21.7,30.12,ENE,67,4.0,8.0,82,0.00,,,0.00,0,Wunderground v.1.15,2013-03-05 07:38:00,
2013-03-05 01:39:00,26.5,21.7,30.12,NE,44,4.0,8.0,82,0.00,,,0.00,0,Wunderground v.1.15,2013-03-05 07:39:00,
2013-03-05 01:40:00,26.5,21.7,30.12,NE,46,4.0,4.0,82,0.00,,,0.00,0,Wunderground v.1.15,2013-03-05 07:40:00,
2013-03-05 01:45:00,26.5,21.7,30.11,NE,41,4.0,8.0,82,0.00,,,0.00,0,Wunderground v.1.15,2013-03-05 07:45:00,
2013-03-05 01:46:00,26.5,21.7,30.11,NNE,33,4.0,8.0,82,0.00,,,0.00,0,Wunderground v.1.15,2013-03-05 07:46:00,
2013-03-05 01:47:00,26.5,21.7,30.11,NNE,33,4.0,8.0,82,0.00,,,0.00,0,Wunderground v.1.15,2013-03-05 07:47:00,
2013-03-05 01:48:00,26.5,21.7,30.11,NE,55,3.0,8.0,82,0.00,,,0.00,0,Wunderground v.1.15,2013-03-05 07:48:00,
2013-03-05 01:50:00,26.5,21.7,30.11,NNE,15,3.0,5.0,82,0.00,,,0.00,0,Wunderground v.1.15,2013-03-05 07:50:00,
2013-03-05 01:55:00,26.5,21.7,30.11,NNE,17,2.0,5.0,82,0.00,,,0.00,0,Wunderground v.1.15,2013-03-05 07:55:00,
2013-03-05 01:57:00,26.5,21.7,30.11,NNE,17,2.0,5.0,82,0.00,,,0.00,0,Wunderground v.1.15,2013-03-05 07:57:00,
2013-03-05 01:58:00,26.5,21.7,30.11,NNE,17,2.0,5.0,82,0.00,,,0.00,0,Wunderground v.1.15,2013-03-05 07:58:00,
2013-03-05 02:00:00,26.5,21.7,30.11,NNE,17,2.0,2.0,82,0.00,,,0.00,0,Wunderground v.1.15,2013-03-05 08:00:00,
2013-03-05 02:03:00,26.5,21.7,30.11,North,360,1.0,2.0,82,0.00,,,0.00,0,Wunderground v.1.15,2013-03-05 08:03:00,
2013-03-05 02:04:00,26.5,21.7,30.11,North,360,1.0,2.0,82,0.00,,,0.00,0,Wunderground v.1.15,2013-03-05 08:04:00,
2013-03-05 02:06:00,26.5,21.7,30.11,North,5,1.0,4.0,82,0.00,,,0.00,0,Wunderground v.1.15,2013-03-05 08:06:00,
2013-03-05 02:11:00,26.5,21.7,30.10,NNE,27,3.0,3.0,82,0.00,,,0.00,0,Wunderground v.1.15,2013-03-05 08:11:00,
2013-03-05 02:13:00,26.5,21.7,30.10,ENE,63,3.0,3.0,82,0.00,,,0.00,0,Wunderground v.1.15,2013-03-05 08:13:00,
2013-03-05 02:14:00,26.5,21.7,30.10,ENE,65,3.0,3.0,82,0.00,,,0.00,0,Wunderground v.1.15,2013-03-05 08:14:00,
2013-03-05 02:16:00,26.5,21.7,30.10,East,87,3.0,3.0,82,0.00,,,0.00,0,Wunderground v.1.15,2013-03-05 08:16:00,
2013-03-05 02:17:00,26.4,21.7,30.10,ENE,61,3.0,3.0,82,0.00,,,0.00,0,Wunderground v.1.15,2013-03-05 08:17:00,
2013-03-05 02:19:00,26.4,21.9,30.10,East,82,3.0,5.0,83,0.00,,,0.00,0,Wunderground v.1.15,2013-03-05 08:19:00,
2013-03-05 02:22:00,26.5,22.0,30.09,ENE,61,2.0,3.0,83,0.00,,,0.00,0,Wunderground v.1.15,2013-03-05 08:22:00,
2013-03-05 02:23:00,26.4,21.9,30.10,ENE,64,2.0,3.0,83,0.00,,,0.00,0,Wunderground v.1.15,2013-03-05 08:23:00,
2013-03-05 02:25:00,26.5,22.0,30.09,ENE,71,2.0,3.0,83,0.00,,,0.00,0,Wunderground v.1.15,2013-03-05 08:25:00,
2013-03-05 02:26:00,26.5,22.0,30.09,NE,36,2.0,6.0,83,0.00,,,0.00,0,Wunderground v.1.15,2013-03-05 08:26:00,
2013-03-05 02:30:00,26.5,22.0,30.09,ENE,67,3.0,6.0,83,0.00,,,0.00,0,Wunderground v.1.15,2013-03-05 08:30:00,
2013-03-05 02:31:00,26.5,22.0,30.09,NE,43,3.0,6.0,83,0.00,,,0.00,0,Wunderground v.1.15,2013-03-05 08:31:00,
2013-03-05 02:32:00,26.4,21.9,30.09,NE,37,3.0,6.0,83,0.00,,,0.00,0,Wunderground v.1.15,2013-03-05 08:32:00,
2013-03-05 02:34:00,26.4,21.9,30.08,North,5,4.0,6.0,83,0.00,,,0.00,0,Wunderground v.1.15,2013-03-05 08:34:00,
2013-03-05 02:37:00,26.4,21.9,30.08,NNE,15,4.0,6.0,83,0.00,,,0.00,0,Wunderground v.1.15,2013-03-05 08:37:00,
2013-03-05 02:40:00,26.4,21.9,30.08,ENE,64,3.0,5.0,83,0.00,,,0.00,0,Wunderground v.1.15,2013-03-05 08:40:00,
2013-03-05 02:41:00,26.4,21.9,30.08,ENE,59,3.0,5.0,83,0.00,,,0.00,0,Wunderground v.1.15,2013-03-05 08:41:00,
2013-03-05 02:43:00,26.4,21.9,30.08,NE,46,3.0,5.0,83,0.00,,,0.00,0,Wunderground v.1.15,2013-03-05 08:43:00,
2013-03-05 02:45:00,26.4,21.9,30.08,East,90,3.0,6.0,83,0.00,,,0.00,0,Wunderground v.1.15,2013-03-05 08:45:00,
2013-03-05 02:49:00,26.4,21.9,30.08,NE,54,4.0,6.0,83,0.00,,,0.00,0,Wunderground v.1.15,2013-03-05 08:49:00,
2013-03-05 02:50:00,26.5,22.0,30.08,East,96,4.0,4.0,83,0.00,,,0.00,0,Wunderground v.1.15,2013-03-05 08:50:00,
2013-03-05 02:51:00,26.4,21.9,30.08,NE,40,4.0,5.0,83,0.00,,,0.00,0,Wunderground v.1.15,2013-03-05 08:51:00,
2013-03-05 02:54:00,26.5,22.3,30.08,ENE,68,4.0,6.0,84,0.00,,,0.00,0,Wunderground v.1.15,2013-03-05 08:54:00,
2013-03-05 02:56:00,26.5,22.3,30.07,NNE,21,4.0,6.0,84,0.00,,,0.00,0,Wunderground v.1.15,2013-03-05 08:56:00,
2013-03-05 02:57:00,26.5,22.3,30.07,ENE,62,4.0,6.0,84,0.00,,,0.00,0,Wunderground v.1.15,2013-03-05 08:57:00,
2013-03-05 03:01:00,26.5,22.3,30.07,NE,48,5.0,7.0,84,0.00,,,0.00,0,Wunderground v.1.15,2013-03-05 09:01:00,
2013-03-05 03:03:00,26.5,22.3,30.07,ENE,59,5.0,7.0,84,0.00,,,0.00,0,Wunderground v.1.15,2013-03-05 09:03:00,
2013-03-05 03:04:00,26.5,22.3,30.07,ENE,60,5.0,7.0,84,0.00,,,0.00,0,Wunderground v.1.15,2013-03-05 09:04:00,
2013-03-05 03:08:00,26.6,22.4,30.07,ESE,107,4.0,7.0,84,0.00,,,0.00,0,Wunderground v.1.15,2013-03-05 09:08:00,
2013-03-05 03:11:00,26.6,22.4,30.07,East,84,4.0,6.0,84,0.00,,,0.00,0,Wunderground v.1.15,2013-03-05 09:11:00,
2013-03-05 03:15:00,26.6,22.4,30.07,NE,53,5.0,6.0,84,0.00,,,0.00,0,Wunderground v.1.15,2013-03-05 09:15:00,
2013-03-05 03:16:00,26.6,22.4,30.07,NNE,28,5.0,6.0,84,0.00,,,0.00,0,Wunderground v.1.15,2013-03-05 09:16:00,
2013-03-05 03:17:00,26.6,22.4,30.07,NE,37,4.0,6.0,84,0.00,,,0.00,0,Wunderground v.1.15,2013-03-05 09:17:00,
2013-03-05 03:20:00,26.6,22.4,30.07,NE,55,4.0,4.0,84,0.00,,,0.00,0,Wunderground v.1.15,2013-03-05 09:20:00,
2013-03-05 03:22:00,26.6,22.4,30.07,NNE,19,4.0,5.0,84,0.00,,,0.00,0,Wunderground v.1.15,2013-03-05 09:22:00,
2013-03-05 03:25:00,26.6,22.4,30.07,ENE,65,4.0,6.0,84,0.00,,,0.00,0,Wunderground v.1.15,2013-03-05 09:25:00,
2013-03-05 03:27:00,26.6,22.4,30.07,ENE,59,4.0,6.0,84,0.00,,,0.00,0,Wunderground v.1.15,2013-03-05 09:27:00,
2013-03-05 03:28:00,26.6,22.7,30.07,ENE,63,4.0,6.0,85,0.00,,,0.00,0,Wunderground v.1.15,2013-03-05 09:28:00,
2013-03-05 03:30:00,26.6,22.7,30.07,NNE,30,4.0,4.0,85,0.00,,,0.00,0,Wunderground v.1.15,2013-03-05 09:30:00,
2013-03-05 03:31:00,26.6,22.7,30.07,NNE,30,4.0,4.0,85,0.00,,,0.00,0,Wunderground v.1.15,2013-03-05 09:31:00,
2013-03-05 03:34:00,26.7,22.8,30.07,NNE,30,3.0,4.0,85,0.00,,,0.00,0,Wunderground v.1.15,2013-03-05 09:34:00,
2013-03-05 03:40:00,26.7,22.8,30.07,ENE,75,2.0,2.0,85,0.00,,,0.00,0,Wunderground v.1.15,2013-03-05 09:40:00,
2013-03-05 03:41:00,26.6,22.7,30.07,ENE,75,2.0,2.0,85,0.00,,,0.00,0,Wunderground v.1.15,2013-03-05 09:41:00,
2013-03-05 03:42:00,26.7,22.8,30.07,ENE,75,2.0,2.0,85,0.00,,,0.00,0,Wunderground v.1.15,2013-03-05 09:42:00,
2013-03-05 03:45:00,26.6,22.7,30.07,ENE,67,1.0,3.0,85,0.00,,,0.00,0,Wunderground v.1.15,2013-03-05 09:45:00,
2013-03-05 03:46:00,26.6,24.6,30.07,ENE,67,1.0,3.0,92,0.00,,,0.00,0,Wunderground v.1.15,2013-03-05 09:46:00,
2013-03-05 03:50:00,26.6,23.0,30.07,ENE,75,1.0,2.0,86,0.00,,,0.00,0,Wunderground v.1.15,2013-03-05 09:50:00,
2013-03-05 03:51:00,26.7,23.1,30.07,ENE,76,1.0,2.0,86,0.00,,,0.00,0,Wunderground v.1.15,2013-03-05 09:51:00,
2013-03-05 03:53:00,26.6,22.7,30.07,East,81,2.0,6.0,85,0.00,,,0.00,0,Wunderground v.1.15,2013-03-05 09:53:00,
2013-03-05 03:55:00,26.6,22.7,30.07,NE,51,2.0,6.0,85,0.00,,,0.00,0,Wunderground v.1.15,2013-03-05 09:55:00,
2013-03-05 03:56:00,26.6,23.0,30.06,NE,56,2.0,6.0,86,0.00,,,0.00,0,Wunderground v.1.15,2013-03-05 09:56:00,
2013-03-05 03:58:00,26.6,23.0,30.06,ENE,57,2.0,6.0,86,0.00,,,0.00,0,Wunderground v.1.15,2013-03-05 09:58:00,
2013-03-05 04:02:00,26.6,23.0,30.06,ENE,74,1.0,5.0,86,0.00,,,0.00,0,Wunderground v.1.15,2013-03-05 10:02:00,
2013-03-05 04:04:00,26.6,23.0,30.06,East,88,2.0,5.0,86,0.00,,,0.00,0,Wunderground v.1.15,2013-03-05 10:04:00,
2013-03-05 04:05:00,26.6,23.0,30.06,East,87,2.0,5.0,86,0.00,,,0.00,0,Wunderground v.1.15,2013-03-05 10:05:00,
2013-03-05 04:08:00,26.5,22.9,30.06,East,87,1.0,5.0,86,0.00,,,0.00,0,Wunderground v.1.15,2013-03-05 10:08:00,
2013-03-05 04:10:00,26.5,22.9,30.06,East,86,1.0,2.0,86,0.00,,,0.00,0,Wunderground v.1.15,2013-03-05 10:10:00,
2013-03-05 04:12:00,26.5,22.9,30.06,ENE,73,2.0,6.0,86,0.00,,,0.00,0,Wunderground v.1.15,2013-03-05 10:12:00,
2013-03-05 04:14:00,26.6,23.0,30.06,NNE,29,2.0,6.0,86,0.00,,,0.00,0,Wunderground v.1.15,2013-03-05 10:14:00,
2013-03-05 04:15:00,26.6,23.0,30.06,NNE,32,2.0,6.0,86,0.00,,,0.00,0,Wunderground v.1.15,2013-03-05 10:15:00,
2013-03-05 04:16:00,26.6,23.0,30.06,NNE,32,3.0,6.0,86,0.00,,,0.00,0,Wunderground v.1.15,2013-03-05 10:16:00,
2013-03-05 04:17:00,26.6,23.0,30.06,NE,38,3.0,6.0,86,0.00,,,0.00,0,Wunderground v.1.15,2013-03-05 10:17:00,
2013-03-05 04:20:00,26.6,23.3,30.06,NE,44,4.0,6.0,87,0.00,,,0.00,0,Wunderground v.1.15,2013-03-05 10:20:00,
2013-03-05 04:23:00,26.6,23.3,30.06,East,83,5.0,6.0,87,0.00,,,0.00,0,Wunderground v.1.15,2013-03-05 10:23:00,
2013-03-05 04:25:00,26.6,23.3,30.06,ENE,65,4.0,6.0,87,0.00,,,0.00,0,Wunderground v.1.15,2013-03-05 10:25:00,
2013-03-05 04:26:00,26.5,23.4,30.06,ENE,62,5.0,6.0,88,0.00,,,0.00,0,Wunderground v.1.15,2013-03-05 10:26:00,
2013-03-05 04:27:00,26.5,23.4,30.06,ENE,60,5.0,6.0,88,0.00,,,0.00,0,Wunderground v.1.15,2013-03-05 10:27:00,
2013-03-05 04:29:00,26.5,23.4,30.05,NE,54,4.0,6.0,88,0.00,,,0.00,0,Wunderground v.1.15,2013-03-05 10:29:00,
2013-03-05 04:31:00,26.5,23.4,30.05,North,11,4.0,4.0,88,0.00,,,0.00,0,Wunderground v.1.15,2013-03-05 10:31:00,
2013-03-05 04:33:00,26.5,23.4,30.06,NE,53,3.0,4.0,88,0.00,,,0.00,0,Wunderground v.1.15,2013-03-05 10:33:00,
2013-03-05 04:36:00,26.5,23.4,30.05,North,5,3.0,4.0,88,0.00,,,0.00,0,Wunderground v.1.15,2013-03-05 10:36:00,
2013-03-05 04:38:00,26.5,23.4,30.05,North,5,3.0,4.0,88,0.00,,,0.00,0,Wunderground v.1.15,2013-03-05 10:38:00,
2013-03-05 04:39:00,26.5,23.4,30.05,North,5,3.0,4.0,88,0.00,,,0.00,0,Wunderground v.1.15,2013-03-05 10:39:00,
2013-03-05 04:42:00,26.5,23.7,30.05,NE,42,2.0,6.0,89,0.00,,,0.00,0,Wunderground v.1.15,2013-03-05 10:42:00,
2013-03-05 04:44:00,26.4,23.6,30.05,North,360,3.0,6.0,89,0.00,,,0.00,0,Wunderground v.1.15,2013-03-05 10:44:00,
2013-03-05 04:47:00,26.4,23.6,30.05,ENE,67,3.0,7.0,89,0.00,,,0.00,0,Wunderground v.1.15,2013-03-05 10:47:00,
2013-03-05 04:48:00,26.4,23.6,30.05,NE,44,4.0,7.0,89,0.00,,,0.00,0,Wunderground v.1.15,2013-03-05 10:48:00,
2013-03-05 04:52:00,26.3,23.5,30.05,NE,39,4.0,5.0,89,0.00,,,0.00,0,Wunderground v.1.15,2013-03-05 10:52:00,
2013-03-05 04:53:00,26.3,23.5,30.05,NE,53,4.0,5.0,89,0.00,,,0.00,0,Wunderground v.1.15,2013-03-05 10:53:00,
2013-03-05 04:54:00,26.3,23.5,30.05,NE,51,4.0,5.0,89,0.00,,,0.00,0,Wunderground v.1.15,2013-03-05 10:54:00,
2013-03-05 04:55:00,26.3,23.5,30.05,ENE,57,4.0,5.0,89,0.00,,,0.00,0,Wunderground v.1.15,2013-03-05 10:55:00,
2013-03-05 04:59:00,26.2,23.4,30.05,NE,42,4.0,6.0,89,0.00,,,0.00,0,Wunderground v.1.15,2013-03-05 10:59:00,
2013-03-05 05:00:00,26.2,23.4,30.05,NE,42,4.0,4.0,89,0.00,,,0.00,0,Wunderground v.1.15,2013-03-05 11:00:00,
2013-03-05 05:03:00,26.2,23.4,30.06,NE,37,3.0,4.0,89,0.00,,,0.00,0,Wunderground v.1.15,2013-03-05 11:03:00,
2013-03-05 05:04:00,26.2,23.4,30.06,NE,37,3.0,4.0,89,0.00,,,0.00,0,Wunderground v.1.15,2013-03-05 11:04:00,
2013-03-05 05:07:00,26.1,23.6,30.06,NE,37,2.0,4.0,90,0.00,,,0.00,0,Wunderground v.1.15,2013-03-05 11:07:00,
2013-03-05 05:09:00,26.1,23.6,30.06,NNW,336,2.0,4.0,90,0.00,,,0.00,0,Wunderground v.1.15,2013-03-05 11:09:00,
2013-03-05 05:15:00,26.1,23.6,30.06,NE,41,2.0,4.0,90,0.00,,,0.01,0,Wunderground v.1.15,2013-03-05 11:15:00,
2013-03-05 05:16:00,26.1,23.6,30.06,NE,41,2.0,4.0,90,0.00,,,0.01,0,Wunderground v.1.15,2013-03-05 11:16:00,
2013-03-05 05:17:00,26.1,23.6,30.06,NE,42,2.0,4.0,90,0.00,,,0.01,0,Wunderground v.1.15,2013-03-05 11:17:00,
2013-03-05 05:21:00,26.1,23.6,30.06,NE,47,2.0,2.0,90,0.00,,,0.01,0,Wunderground v.1.15,2013-03-05 11:21:00,
2013-03-05 05:22:00,26.1,23.6,30.06,NE,47,2.0,2.0,90,0.00,,,0.01,0,Wunderground v.1.15,2013-03-05 11:22:00,
2013-03-05 05:23:00,26.1,23.6,30.06,NE,47,2.0,2.0,90,0.00,,,0.01,0,Wunderground v.1.15,2013-03-05 11:23:00,
2013-03-05 05:25:00,26.1,23.6,30.06,NE,47,2.0,2.0,90,0.00,,,0.01,0,Wunderground v.1.15,2013-03-05 11:25:00,
2013-03-05 05:27:00,26.1,23.6,30.06,ENE,60,1.0,4.0,90,0.00,,,0.01,0,Wunderground v.1.15,2013-03-05 11:27:00,
2013-03-05 05:29:00,26.1,23.6,30.06,ENE,58,1.0,4.0,90,0.00,,,0.01,0,Wunderground v.1.15,2013-03-05 11:29:00,
2013-03-05 05:32:00,26.0,23.5,30.06,NNE,26,1.0,5.0,90,0.00,,,0.01,0,Wunderground v.1.15,2013-03-05 11:32:00,
2013-03-05 05:33:00,26.0,23.5,30.06,ENE,59,2.0,5.0,90,0.00,,,0.01,0,Wunderground v.1.15,2013-03-05 11:33:00,
2013-03-05 05:35:00,26.0,23.5,30.06,ENE,60,2.0,5.0,90,0.00,,,0.01,0,Wunderground v.1.15,2013-03-05 11:35:00,
2013-03-05 05:38:00,26.0,23.5,30.06,ENE,60,2.0,5.0,90,0.00,,,0.01,0,Wunderground v.1.15,2013-03-05 11:38:00,
2013-03-05 05:39:00,25.9,23.4,30.06,ENE,60,2.0,5.0,90,0.00,,,0.01,0,Wunderground v.1.15,2013-03-05 11:39:00,
2013-03-05 05:41:00,26.0,23.5,30.06,NE,46,2.0,3.0,90,0.00,,,0.01,0,Wunderground v.1.15,2013-03-05 11:41:00,
2013-03-05 05:42:00,25.9,23.4,30.06,North,9,2.0,3.0,90,0.00,,,0.01,0,Wunderground v.1.15,2013-03-05 11:42:00,
2013-03-05 05:44:00,25.9,23.4,30.06,NNE,13,2.0,3.0,90,0.00,,,0.01,0,Wunderground v.1.15,2013-03-05 11:44:00,
2013-03-05 05:48:00,25.9,23.4,30.06,NNE,14,2.0,5.0,90,0.00,,,0.01,0,Wunderground v.1.15,2013-03-05 11:48:00,
2013-03-05 05:50:00,25.9,23.4,30.06,NNE,15,2.0,2.0,90,0.00,,,0.01,0,Wunderground v.1.15,2013-03-05 11:50:00,
2013-03-05 05:51:00,25.9,23.4,30.06,NNE,12,2.0,2.0,90,0.00,,,0.01,0,Wunderground v.1.15,2013-03-05 11:51:00,
2013-03-05 05:55:00,25.8,23.5,30.06,North,5,2.0,3.0,91,0.00,,,0.01,0,Wunderground v.1.15,2013-03-05 11:55:00,
2013-03-05 05:57:00,25.8,23.5,30.06,North,5,2.0,3.0,91,0.00,,,0.01,0,Wunderground v.1.15,2013-03-05 11:57:00,
2013-03-05 05:58:00,25.7,23.4,30.06,North,5,2.0,3.0,91,0.00,,,0.01,0,Wunderground v.1.15,2013-03-05 11:58:00,
2013-03-05 06:02:00,25.7,23.4,30.06,NW,313,2.0,3.0,91,0.00,,,0.01,0,Wunderground v.1.15,2013-03-05 12:02:00,
2013-03-05 06:04:00,25.7,23.4,30.06,NW,316,2.0,3.0,91,0.00,,,0.01,0,Wunderground v.1.15,2013-03-05 12:04:00,
2013-03-05 06:06:00,25.6,23.3,30.06,NW,316,2.0,3.0,91,0.00,,,0.02,0,Wunderground v.1.15,2013-03-05 12:06:00,
2013-03-05 06:07:00,25.6,23.3,30.06,NW,316,2.0,3.0,91,0.00,,,0.02,0,Wunderground v.1.15,2013-03-05 12:07:00,
2013-03-05 06:08:00,25.6,23.3,30.06,NW,316,2.0,3.0,91,0.00,,,0.02,0,Wunderground v.1.15,2013-03-05 12:08:00,
2013-03-05 06:09:00,25.6,23.3,30.06,NW,316,2.0,3.0,91,0.00,,,0.02,0,Wunderground v.1.15,2013-03-05 12:09:00,
2013-03-05 06:14:00,25.6,23.3,30.06,NW,316,1.0,2.0,91,0.00,,,0.02,0,Wunderground v.1.15,2013-03-05 12:14:00,
2013-03-05 06:16:00,25.6,23.3,30.06,NW,316,1.0,2.0,91,0.00,,,0.02,0,Wunderground v.1.15,2013-03-05 12:16:00,
2013-03-05 06:17:00,25.6,23.3,30.06,NW,316,1.0,2.0,91,0.00,,,0.02,0,Wunderground v.1.15,2013-03-05 12:17:00,
2013-03-05 06:20:00,25.6,23.3,30.06,NW,322,1.0,2.0,91,0.00,,,0.02,0,Wunderground v.1.15,2013-03-05 12:20:00,
2013-03-05 06:21:00,25.6,23.3,30.06,NW,322,1.0,2.0,91,0.00,,,0.02,0,Wunderground v.1.15,2013-03-05 12:21:00,
2013-03-05 06:22:00,25.6,23.3,30.06,NW,322,1.0,2.0,91,0.00,,,0.02,0,Wunderground v.1.15,2013-03-05 12:22:00,
2013-03-05 06:23:00,25.6,23.3,30.06,NW,322,1.0,2.0,91,0.00,,,0.02,0,Wunderground v.1.15,2013-03-05 12:23:00,
2013-03-05 06:25:00,25.6,23.3,30.06,NW,322,1.0,3.0,91,0.00,,,0.02,0,Wunderground v.1.15,2013-03-05 12:25:00,
2013-03-05 06:27:00,25.6,23.3,30.06,NW,322,2.0,3.0,91,0.00,,,0.02,0,Wunderground v.1.15,2013-03-05 12:27:00,
2013-03-05 06:31:00,25.6,23.3,30.06,NW,323,2.0,2.0,91,0.00,,,0.02,0,Wunderground v.1.15,2013-03-05 12:31:00,
2013-03-05 06:32:00,25.6,23.3,30.06,NW,323,2.0,2.0,91,0.00,,,0.02,0,Wunderground v.1.15,2013-03-05 12:32:00,
2013-03-05 06:33:00,25.6,23.3,30.06,NW,323,2.0,2.0,91,0.00,,,0.02,0,Wunderground v.1.15,2013-03-05 12:33:00,
2013-03-05 06:37:00,25.6,23.3,30.06,NW,323,2.0,2.0,91,0.00,,,0.02,0,Wunderground v.1.15,2013-03-05 12:37:00,
2013-03-05 06:38:00,25.5,23.2,30.06,NW,323,1.0,2.0,91,0.00,,,0.02,0,Wunderground v.1.15,2013-03-05 12:38:00,
2013-03-05 06:42:00,25.5,23.2,30.06,NW,323,1.0,2.0,91,0.00,,,0.02,0,Wunderground v.1.15,2013-03-05 12:42:00,
2013-03-05 06:43:00,25.5,23.2,30.06,NW,323,1.0,2.0,91,0.00,,,0.03,0,Wunderground v.1.15,2013-03-05 12:43:00,
2013-03-05 06:45:00,25.5,23.2,30.06,NW,323,1.0,2.0,91,0.00,,,0.03,0,Wunderground v.1.15,2013-03-05 12:45:00,
2013-03-05 06:47:00,25.5,23.2,30.06,NW,323,1.0,2.0,91,0.00,,,0.03,0,Wunderground v.1.15,2013-03-05 12:47:00,
2013-03-05 06:48:00,25.5,23.2,30.06,NW,323,1.0,2.0,91,0.00,,,0.03,0,Wunderground v.1.15,2013-03-05 12:48:00,
2013-03-05 06:50:00,25.4,23.1,30.06,NW,323,1.0,1.0,91,0.00,,,0.03,0,Wunderground v.1.15,2013-03-05 12:50:00,
2013-03-05 06:52:00,25.4,23.1,30.06,NW,323,0.0,1.0,91,0.00,,,0.03,5,Wunderground v.1.15,2013-03-05 12:52:00,
2013-03-05 06:53:00,25.4,23.1,30.06,NW,323,0.0,1.0,91,0.00,,,0.03,5,Wunderground v.1.15,2013-03-05 12:53:00,
2013-03-05 06:58:00,25.4,23.1,30.06,NW,323,0.0,1.0,91,0.00,,,0.03,9,Wunderground v.1.15,2013-03-05 12:58:00,
2013-03-05 07:00:00,25.4,23.1,30.06,NW,323,0.0,0.0,91,0.00,,,0.03,11,Wunderground v.1.15,2013-03-05 13:00:00,
2013-03-05 07:03:00,25.4,23.1,30.06,NW,323,0.0,2.0,91,0.00,,,0.04,14,Wunderground v.1.15,2013-03-05 13:03:00,
2013-03-05 07:05:00,25.4,23.1,30.06,NW,323,1.0,3.0,91,0.00,,,0.04,16,Wunderground v.1.15,2013-03-05 13:05:00,
2013-03-05 07:07:00,25.5,23.2,30.06,NNW,340,1.0,3.0,91,0.00,,,0.04,18,Wunderground v.1.15,2013-03-05 13:07:00,
2013-03-05 07:10:00,25.5,23.2,30.06,NNE,32,1.0,5.0,91,0.00,,,0.04,18,Wunderground v.1.15,2013-03-05 13:10:00,
2013-03-05 07:11:00,25.5,23.2,30.06,NNE,17,1.0,5.0,91,0.00,,,0.04,18,Wunderground v.1.15,2013-03-05 13:11:00,
2013-03-05 07:12:00,25.5,23.2,30.06,NNE,17,2.0,5.0,91,0.00,,,0.04,18,Wunderground v.1.15,2013-03-05 13:12:00,
2013-03-05 07:14:00,25.5,23.2,30.06,NNE,20,2.0,5.0,91,0.00,,,0.04,16,Wunderground v.1.15,2013-03-05 13:14:00,
2013-03-05 07:15:00,25.5,23.2,30.06,North,355,2.0,5.0,91,0.00,,,0.04,16,Wunderground v.1.15,2013-03-05 13:15:00,
2013-03-05 07:17:00,25.4,23.1,30.06,North,360,3.0,5.0,91,0.00,,,0.04,16,Wunderground v.1.15,2013-03-05 13:17:00,
2013-03-05 07:19:00,25.4,23.1,30.06,North,360,2.0,5.0,91,0.00,,,0.04,16,Wunderground v.1.15,2013-03-05 13:19:00,
2013-03-05 07:20:00,25.4,23.1,30.06,North,5,2.0,2.0,91,0.00,,,0.04,16,Wunderground v.1.15,2013-03-05 13:20:00,
2013-03-05 07:22:00,25.4,22.9,30.06,North,5,2.0,3.0,90,0.00,,,0.04,16,Wunderground v.1.15,2013-03-05 13:22:00,
2013-03-05 07:24:00,25.4,22.9,30.06,North,5,2.0,3.0,90,0.00,,,0.04,16,Wunderground v.1.15,2013-03-05 13:24:00,
2013-03-05 07:25:00,25.4,22.9,30.06,North,5,1.0,3.0,90,0.00,,,0.04,18,Wunderground v.1.15,2013-03-05 13:25:00,
2013-03-05 07:27:00,25.4,22.9,30.06,North,5,2.0,3.0,90,0.00,,,0.04,18,Wunderground v.1.15,2013-03-05 13:27:00,
2013-03-05 07:30:00,25.4,22.9,30.06,North,5,2.0,3.0,90,0.00,,,0.05,18,Wunderground v.1.15,2013-03-05 13:30:00,
2013-03-05 07:32:00,25.4,22.9,30.06,North,5,2.0,3.0,90,0.00,,,0.05,19,Wunderground v.1.15,2013-03-05 13:32:00,
2013-03-05 07:33:00,25.5,23.0,30.06,North,5,2.0,3.0,90,0.00,,,0.05,19,Wunderground v.1.15,2013-03-05 13:33:00,
2013-03-05 07:36:00,25.5,23.0,30.06,North,5,1.0,3.0,90,0.00,,,0.05,19,Wunderground v.1.15,2013-03-05 13:36:00,
2013-03-05 07:37:00,25.5,23.0,30.06,North,5,1.0,3.0,90,0.00,,,0.05,19,Wunderground v.1.15,2013-03-05 13:37:00,
2013-03-05 07:39:00,25.6,23.1,30.06,North,5,1.0,3.0,90,0.00,,,0.05,19,Wunderground v.1.15,2013-03-05 13:39:00,
2013-03-05 07:41:00,25.6,23.1,30.06,North,5,1.0,2.0,90,0.00,,,0.05,21,Wunderground v.1.15,2013-03-05 13:41:00,
2013-03-05 07:44:00,25.6,23.1,30.06,North,5,1.0,2.0,90,0.00,,,0.05,23,Wunderground v.1.15,2013-03-05 13:44:00,
2013-03-05 07:45:00,25.6,23.1,30.06,North,5,1.0,5.0,90,0.00,,,0.05,23,Wunderground v.1.15,2013-03-05 13:45:00,
2013-03-05 07:47:00,25.6,23.1,30.06,North,5,2.0,5.0,90,0.00,,,0.05,23,Wunderground v.1.15,2013-03-05 13:47:00,
2013-03-05 07:48:00,25.6,23.1,30.06,North,5,2.0,5.0,90,0.00,,,0.05,25,Wunderground v.1.15,2013-03-05 13:48:00,
2013-03-05 07:51:00,25.6,23.1,30.06,North,5,2.0,2.0,90,0.00,,,0.05,30,Wunderground v.1.15,2013-03-05 13:51:00,
2013-03-05 07:53:00,25.6,23.1,30.06,North,5,2.0,2.0,90,0.00,,,0.05,35,Wunderground v.1.15,2013-03-05 13:53:00,
2013-03-05 07:54:00,25.6,23.1,30.06,North,5,2.0,2.0,90,0.00,,,0.05,35,Wunderground v.1.15,2013-03-05 13:54:00,
2013-03-05 07:56:00,25.6,23.1,30.06,North,355,2.0,5.0,90,0.00,,,0.05,40,Wunderground v.1.15,2013-03-05 13:56:00,
2013-03-05 07:59:00,25.7,22.9,30.06,NNW,344,2.0,5.0,89,0.00,,,0.06,44,Wunderground v.1.15,2013-03-05 13:59:00,
2013-03-05 08:01:00,25.7,23.2,30.07,NNW,344,2.0,3.0,90,0.00,,,0.06,44,Wunderground v.1.15,2013-03-05 14:01:00,
2013-03-05 08:03:00,25.6,23.1,30.07,NNW,344,2.0,3.0,90,0.00,,,0.06,47,Wunderground v.1.15,2013-03-05 14:03:00,
2013-03-05 08:05:00,25.6,22.8,30.07,NNW,344,2.0,3.0,89,0.00,,,0.06,49,Wunderground v.1.15,2013-03-05 14:05:00,
2013-03-05 08:07:00,25.6,22.8,30.07,NNW,344,1.0,3.0,89,0.00,,,0.06,51,Wunderground v.1.15,2013-03-05 14:07:00,
2013-03-05 08:08:00,25.5,23.0,30.07,NNW,344,1.0,3.0,90,0.00,,,0.06,53,Wunderground v.1.15,2013-03-05 14:08:00,
2013-03-05 08:09:00,25.6,23.1,30.07,NNW,344,1.0,3.0,90,0.00,,,0.06,54,Wunderground v.1.15,2013-03-05 14:09:00,
2013-03-05 08:11:00,25.5,23.0,30.07,NNW,344,1.0,1.0,90,0.00,,,0.06,56,Wunderground v.1.15,2013-03-05 14:11:00,
2013-03-05 08:13:00,25.5,23.0,30.07,NNW,344,1.0,2.0,90,0.00,,,0.06,62,Wunderground v.1.15,2013-03-05 14:13:00,
2013-03-05 08:15:00,25.4,22.9,30.07,NNW,344,1.0,3.0,90,0.00,,,0.06,62,Wunderground v.1.15,2013-03-05 14:15:00,
2013-03-05 08:16:00,25.4,22.9,30.07,NNW,344,1.0,3.0,90,0.00,,,0.06,62,Wunderground v.1.15,2013-03-05 14:16:00,
2013-03-05 08:21:00,25.4,22.9,30.07,NW,315,1.0,2.0,90,0.00,,,0.06,54,Wunderground v.1.15,2013-03-05 14:21:00,
2013-03-05 08:22:00,25.4,22.9,30.07,NW,315,2.0,2.0,90,0.00,,,0.06,53,Wunderground v.1.15,2013-03-05 14:22:00,
2013-03-05 08:24:00,25.3,22.8,30.07,NW,315,2.0,2.0,90,0.00,,,0.07,46,Wunderground v.1.15,2013-03-05 14:24:00,
2013-03-05 08:28:00,25.3,22.8,30.07,NW,315,1.0,3.0,90,0.00,,,0.07,44,Wunderground v.1.15,2013-03-05 14:28:00,
2013-03-05 08:29:00,25.3,22.8,30.07,NW,315,1.0,3.0,90,0.00,,,0.07,44,Wunderground v.1.15,2013-03-05 14:29:00,
2013-03-05 08:31:00,25.3,23.0,30.07,NW,315,1.0,2.0,91,0.00,,,0.07,44,Wunderground v.1.15,2013-03-05 14:31:00,
2013-03-05 08:32:00,25.3,23.0,30.07,NW,315,1.0,2.0,91,0.00,,,0.07,44,Wunderground v.1.15,2013-03-05 14:32:00,
2013-03-05 08:34:00,25.3,23.0,30.07,NW,315,1.0,2.0,91,0.00,,,0.07,40,Wunderground v.1.15,2013-03-05 14:34:00,
2013-03-05 08:36:00,25.4,23.1,30.07,NW,315,1.0,2.0,91,0.00,,,0.07,39,Wunderground v.1.15,2013-03-05 14:36:00,
2013-03-05 08:39:00,25.4,23.1,30.07,NNW,340,1.0,4.0,91,0.00,,,0.07,37,Wunderground v.1.15,2013-03-05 14:39:00,
2013-03-05 08:42:00,25.4,23.1,30.07,NNW,340,2.0,3.0,91,0.00,,,0.08,39,Wunderground v.1.15,2013-03-05 14:42:00,
2013-03-05 08:43:00,25.4,23.1,30.07,NNW,340,2.0,3.0,91,0.00,,,0.08,39,Wunderground v.1.15,2013-03-05 14:43:00,
2013-03-05 08:45:00,25.4,23.1,30.07,NNW,335,2.0,3.0,91,0.00,,,0.08,37,Wunderground v.1.15,2013-03-05 14:45:00,
2013-03-05 08:46:00,25.4,23.1,30.07,NNW,335,2.0,3.0,91,0.00,,,0.08,37,Wunderground v.1.15,2013-03-05 14:46:00,
2013-03-05 08:49:00,25.4,23.1,30.07,NNW,335,2.0,3.0,91,0.00,,,0.08,37,Wunderground v.1.15,2013-03-05 14:49:00,
2013-03-05 08:51:00,25.5,23.2,30.07,NNW,335,2.0,2.0,91,0.00,,,0.08,39,Wunderground v.1.15,2013-03-05 14:51:00,
2013-03-05 08:52:00,25.5,23.2,30.07,NNW,335,2.0,2.0,91,0.00,,,0.08,39,Wunderground v.1.15,2013-03-05 14:52:00,
2013-03-05 08:53:00,25.5,23.2,30.07,NNW,335,2.0,2.0,91,0.00,,,0.08,40,Wunderground v.1.15,2013-03-05 14:53:00,
2013-03-05 08:56:00,25.5,23.2,30.07,NNW,335,2.0,2.0,91,0.00,,,0.08,42,Wunderground v.1.15,2013-03-05 14:56:00,
2013-03-05 08:58:00,25.6,23.3,30.07,NNW,335,1.0,2.0,91,0.00,,,0.08,46,Wunderground v.1.15,2013-03-05 14:58:00,
2013-03-05 09:01:00,25.6,23.3,30.07,NNW,341,1.0,4.0,91,0.00,,,0.09,46,Wunderground v.1.15,2013-03-05 15:01:00,
2013-03-05 09:03:00,25.6,23.3,30.07,NW,323,2.0,4.0,91,0.00,,,0.09,44,Wunderground v.1.15,2013-03-05 15:03:00,
2013-03-05 09:06:00,25.6,23.3,30.07,NE,36,2.0,5.0,91,0.00,,,0.09,42,Wunderground v.1.15,2013-03-05 15:06:00,
2013-03-05 09:08:00,25.6,23.3,30.07,NNE,15,3.0,5.0,91,0.00,,,0.09,44,Wunderground v.1.15,2013-03-05 15:08:00,
2013-03-05 09:09:00,25.6,23.3,30.07,NNW,344,3.0,5.0,91,0.00,,,0.09,44,Wunderground v.1.15,2013-03-05 15:09:00,
2013-03-05 09:12:00,25.6,23.3,30.07,NNE,26,3.0,5.0,91,0.00,,,0.09,47,Wunderground v.1.15,2013-03-05 15:12:00,
2013-03-05 09:14:00,25.7,23.4,30.07,NNW,330,3.0,5.0,91,0.04,,,0.10,51,Wunderground v.1.15,2013-03-05 15:14:00,
2013-03-05 09:17:00,25.7,23.4,30.07,NE,37,3.0,5.0,91,0.04,,,0.10,53,Wunderground v.1.15,2013-03-05 15:17:00,
2013-03-05 09:18:00,25.7,23.4,30.07,NNE,17,3.0,5.0,91,0.04,,,0.10,53,Wunderground v.1.15,2013-03-05 15:18:00,
2013-03-05 09:19:00,25.7,23.2,30.07,NNE,15,3.0,5.0,90,0.04,,,0.10,53,Wunderground v.1.15,2013-03-05 15:19:00,
2013-03-05 09:23:00,25.8,23.3,30.06,NNE,20,3.0,5.0,90,0.04,,,0.10,49,Wunderground v.1.15,2013-03-05 15:23:00,
2013-03-05 09:24:00,25.8,23.3,30.06,NNE,30,3.0,5.0,90,0.04,,,0.10,47,Wunderground v.1.15,2013-03-05 15:24:00,
2013-03-05 09:25:00,25.8,23.3,30.06,NE,51,4.0,5.0,90,0.04,,,0.10,49,Wunderground v.1.15,2013-03-05 15:25:00,
2013-03-05 09:29:00,25.8,23.3,30.06,NNE,32,4.0,5.0,90,0.04,,,0.10,54,Wunderground v.1.15,2013-03-05 15:29:00,
2013-03-05 09:31:00,25.8,23.5,30.06,NNE,12,4.0,4.0,91,0.00,,,0.10,58,Wunderground v.1.15,2013-03-05 15:31:00,
2013-03-05 09:32:00,25.7,23.4,30.06,NNE,25,4.0,4.0,91,0.00,,,0.10,60,Wunderground v.1.15,2013-03-05 15:32:00,
2013-03-05 09:35:00,25.8,23.5,30.05,NNE,24,4.0,4.0,91,0.00,,,0.11,63,Wunderground v.1.15,2013-03-05 15:35:00,
2013-03-05 09:36:00,25.7,23.4,30.05,NNE,16,3.0,8.0,91,0.00,,,0.11,63,Wunderground v.1.15,2013-03-05 15:36:00,
2013-03-05 09:38:00,25.7,23.2,30.05,North,351,4.0,8.0,90,0.00,,,0.11,67,Wunderground v.1.15,2013-03-05 15:38:00,
2013-03-05 09:40:00,25.7,23.2,30.05,North,355,3.0,3.0,90,0.00,,,0.11,65,Wunderground v.1.15,2013-03-05 15:40:00,
2013-03-05 09:42:00,25.7,23.4,30.05,NNW,346,3.0,5.0,91,0.00,,,0.11,69,Wunderground v.1.15,2013-03-05 15:42:00,
2013-03-05 09:44:00,25.7,23.4,30.05,NNE,17,4.0,5.0,91,0.00,,,0.11,70,Wunderground v.1.15,2013-03-05 15:44:00,
2013-03-05 09:46:00,25.7,23.4,30.05,North,5,4.0,8.0,91,0.00,,,0.11,74,Wunderground v.1.15,2013-03-05 15:46:00,
2013-03-05 09:49:00,25.8,23.5,30.05,North,5,3.0,8.0,91,0.00,,,0.11,76,Wunderground v.1.15,2013-03-05 15:49:00,
2013-03-05 09:50:00,25.8,23.5,30.05,North,355,4.0,4.0,91,0.00,,,0.11,79,Wunderground v.1.15,2013-03-05 15:50:00,
2013-03-05 09:52:00,25.7,23.4,30.05,NNW,339,4.0,4.0,91,0.00,,,0.11,83,Wunderground v.1.15,2013-03-05 15:52:00,
2013-03-05 09:55:00,25.8,23.5,30.05,North,9,4.0,5.0,91,0.00,,,0.12,86,Wunderground v.1.15,2013-03-05 15:55:00,
2013-03-05 09:56:00,25.8,23.5,30.05,North,355,4.0,6.0,91,0.00,,,0.12,86,Wunderground v.1.15,2013-03-05 15:56:00,
2013-03-05 09:57:00,25.8,23.3,30.05,North,5,3.0,6.0,90,0.00,,,0.12,84,Wunderground v.1.15,2013-03-05 15:57:00,
2013-03-05 10:01:00,26.0,23.5,30.05,NNE,20,4.0,4.0,90,0.00,,,0.12,79,Wunderground v.1.15,2013-03-05 16:01:00,
2013-03-05 10:03:00,26.0,23.5,30.05,NNW,340,3.0,4.0,90,0.00,,,0.12,74,Wunderground v.1.15,2013-03-05 16:03:00,
2013-03-05 10:04:00,26.0,23.5,30.05,North,355,3.0,4.0,90,0.00,,,0.12,72,Wunderground v.1.15,2013-03-05 16:04:00,
2013-03-05 10:06:00,26.0,23.5,30.05,North,355,3.0,4.0,90,0.00,,,0.12,67,Wunderground v.1.15,2013-03-05 16:06:00,
2013-03-05 10:08:00,26.0,23.5,30.05,NNE,17,3.0,4.0,90,0.00,,,0.12,62,Wunderground v.1.15,2013-03-05 16:08:00,
2013-03-05 10:09:00,26.0,23.5,30.05,North,360,3.0,4.0,90,0.00,,,0.12,62,Wunderground v.1.15,2013-03-05 16:09:00,
2013-03-05 10:11:00,26.0,23.5,30.05,NE,38,3.0,3.0,90,0.00,,,0.12,65,Wunderground v.1.15,2013-03-05 16:11:00,
2013-03-05 10:14:00,26.1,23.6,30.05,North,355,2.0,7.0,90,0.00,,,0.12,72,Wunderground v.1.15,2013-03-05 16:14:00,
2013-03-05 10:15:00,26.1,23.6,30.05,North,350,2.0,7.0,90,0.00,,,0.12,72,Wunderground v.1.15,2013-03-05 16:15:00,
2013-03-05 10:17:00,26.1,23.6,30.05,NNW,342,2.0,7.0,90,0.00,,,0.12,72,Wunderground v.1.15,2013-03-05 16:17:00,
2013-03-05 10:18:00,26.1,23.6,30.05,NNE,33,3.0,7.0,90,0.00,,,0.12,72,Wunderground v.1.15,2013-03-05 16:18:00,
2013-03-05 10:23:00,26.2,23.7,30.05,NNE,19,4.0,4.0,90,0.00,,,0.12,69,Wunderground v.1.15,2013-03-05 16:23:00,
2013-03-05 10:24:00,26.2,23.7,30.05,NNE,19,4.0,4.0,90,0.00,,,0.12,69,Wunderground v.1.15,2013-03-05 16:24:00,
2013-03-05 10:29:00,26.2,23.7,30.05,NNE,22,2.0,4.0,90,0.00,,,0.12,74,Wunderground v.1.15,2013-03-05 16:29:00,
2013-03-05 10:32:00,26.3,23.5,30.05,East,94,2.0,3.0,89,0.00,,,0.12,77,Wunderground v.1.15,2013-03-05 16:32:00,
2013-03-05 10:33:00,26.2,23.7,30.05,NNE,27,2.0,3.0,90,0.00,,,0.12,79,Wunderground v.1.15,2013-03-05 16:33:00,
2013-03-05 10:36:00,26.3,23.8,30.05,North,360,2.0,3.0,90,0.00,,,0.12,84,Wunderground v.1.15,2013-03-05 16:36:00,
2013-03-05 10:37:00,26.4,23.9,30.05,ENE,60,2.0,3.0,90,0.00,,,0.12,88,Wunderground v.1.15,2013-03-05 16:37:00,
2013-03-05 10:38:00,26.4,23.9,30.04,NNW,336,2.0,6.0,90,0.00,,,0.12,90,Wunderground v.1.15,2013-03-05 16:38:00,
2013-03-05 10:40:00,26.4,23.9,30.04,North,10,3.0,4.0,90,0.00,,,0.12,93,Wunderground v.1.15,2013-03-05 16:40:00,
2013-03-05 10:41:00,26.4,23.9,30.04,NNE,22,3.0,6.0,90,0.00,,,0.12,93,Wunderground v.1.15,2013-03-05 16:41:00,
2013-03-05 10:47:00,26.5,24.0,30.05,NNW,344,4.0,6.0,90,0.00,,,0.12,79,Wunderground v.1.15,2013-03-05 16:47:00,
2013-03-05 10:49:00,26.4,23.9,30.05,NE,45,4.0,6.0,90,0.00,,,0.13,83,Wunderground v.1.15,2013-03-05 16:49:00,
2013-03-05 10:51:00,26.4,23.9,30.05,North,5,3.0,4.0,90,0.00,,,0.13,88,Wunderground v.1.15,2013-03-05 16:51:00,
2013-03-05 10:54:00,26.4,23.9,30.05,North,5,3.0,5.0,90,0.00,,,0.13,93,Wunderground v.1.15,2013-03-05 16:54:00,
2013-03-05 10:57:00,26.4,23.9,30.05,NNW,336,3.0,5.0,90,0.00,,,0.13,95,Wunderground v.1.15,2013-03-05 16:57:00,
2013-03-05 10:58:00,26.4,23.9,30.05,North,355,3.0,5.0,90,0.00,,,0.13,100,Wunderground v.1.15,2013-03-05 16:58:00,
2013-03-05 10:59:00,26.4,23.9,30.05,NNW,346,3.0,5.0,90,0.00,,,0.13,100,Wunderground v.1.15,2013-03-05 16:59:00,
2013-03-05 11:02:00,26.4,23.9,30.05,NNE,33,4.0,5.0,90,0.00,,,0.13,109,Wunderground v.1.15,2013-03-05 17:02:00,
2013-03-05 11:03:00,26.4,23.9,30.05,NNE,28,3.0,5.0,90,0.04,,,0.14,111,Wunderground v.1.15,2013-03-05 17:03:00,
2013-03-05 11:04:00,26.4,23.9,30.05,North,355,3.0,5.0,90,0.04,,,0.14,109,Wunderground v.1.15,2013-03-05 17:04:00,
2013-03-05 11:05:00,26.5,24.0,30.05,North,355,3.0,5.0,90,0.04,,,0.14,109,Wunderground v.1.15,2013-03-05 17:05:00,
2013-03-05 11:08:00,26.6,24.1,30.05,NE,36,3.0,5.0,90,0.04,,,0.14,104,Wunderground v.1.15,2013-03-05 17:08:00,
2013-03-05 11:10:00,26.6,24.1,30.05,NE,36,2.0,2.0,90,0.04,,,0.14,97,Wunderground v.1.15,2013-03-05 17:10:00,
2013-03-05 11:13:00,26.7,24.2,30.05,NW,317,2.0,8.0,90,0.04,,,0.14,98,Wunderground v.1.15,2013-03-05 17:13:00,
2013-03-05 11:15:00,26.7,24.2,30.05,NE,41,3.0,8.0,90,0.04,,,0.14,104,Wunderground v.1.15,2013-03-05 17:15:00,
2013-03-05 11:16:00,26.7,24.2,30.05,North,5,3.0,8.0,90,0.04,,,0.14,104,Wunderground v.1.15,2013-03-05 17:16:00,
2013-03-05 11:17:00,26.7,24.2,30.05,North,5,3.0,8.0,90,0.04,,,0.15,105,Wunderground v.1.15,2013-03-05 17:17:00,
2013-03-05 11:23:00,26.8,24.3,30.05,NNW,348,3.0,5.0,90,0.04,,,0.15,137,Wunderground v.1.15,2013-03-05 17:23:00,
2013-03-05 11:24:00,26.8,24.3,30.05,NNW,346,3.0,5.0,90,0.04,,,0.15,137,Wunderground v.1.15,2013-03-05 17:24:00,
2013-03-05 11:27:00,26.9,24.4,30.05,NNE,15,3.0,7.0,90,0.04,,,0.15,155,Wunderground v.1.15,2013-03-05 17:27:00,
2013-03-05 11:29:00,27.0,24.2,30.05,North,360,3.0,7.0,89,0.04,,,0.15,155,Wunderground v.1.15,2013-03-05 17:29:00,
2013-03-05 11:30:00,27.0,24.2,30.05,NNW,334,3.0,3.0,89,0.04,,,0.15,146,Wunderground v.1.15,2013-03-05 17:30:00,
2013-03-05 11:35:00,27.0,24.2,30.05,NNW,337,3.0,7.0,89,0.04,,,0.16,134,Wunderground v.1.15,2013-03-05 17:35:00,
2013-03-05 11:36:00,27.0,24.2,30.05,NNW,328,3.0,7.0,89,0.04,,,0.16,135,Wunderground v.1.15,2013-03-05 17:36:00,
2013-03-05 11:37:00,27.0,24.2,30.05,NW,325,3.0,7.0,89,0.04,,,0.16,137,Wunderground v.1.15,2013-03-05 17:37:00,
2013-03-05 11:42:00,27.1,24.3,30.05,North,355,3.0,5.0,89,0.04,,,0.16,151,Wunderground v.1.15,2013-03-05 17:42:00,
2013-03-05 11:43:00,27.2,24.4,30.05,NNW,337,3.0,8.0,89,0.04,,,0.16,153,Wunderground v.1.15,2013-03-05 17:43:00,
2013-03-05 11:46:00,27.3,24.5,30.05,NNW,346,3.0,8.0,89,0.04,,,0.16,165,Wunderground v.1.15,2013-03-05 17:46:00,
2013-03-05 11:48:00,27.3,24.5,30.05,NNW,329,3.0,8.0,89,0.04,,,0.16,188,Wunderground v.1.15,2013-03-05 17:48:00,
2013-03-05 11:51:00,27.4,24.6,30.05,NNW,348,4.0,5.0,89,0.00,,,0.16,197,Wunderground v.1.15,2013-03-05 17:51:00,
2013-03-05 11:52:00,27.5,24.7,30.05,NNW,348,3.0,5.0,89,0.00,,,0.16,188,Wunderground v.1.15,2013-03-05 17:52:00,
2013-03-05 11:56:00,27.5,24.4,30.05,NNW,342,4.0,7.0,88,0.00,,,0.16,160,Wunderground v.1.15,2013-03-05 17:56:00,
2013-03-05 11:58:00,27.5,24.4,30.04,NNE,33,4.0,7.0,88,0.00,,,0.17,156,Wunderground v.1.15,2013-03-05 17:58:00,
2013-03-05 12:01:00,27.6,24.5,30.04,North,5,3.0,4.0,88,0.00,,,0.17,156,Wunderground v.1.15,2013-03-05 18:01:00,
2013-03-05 12:02:00,27.6,24.5,30.04,NE,49,3.0,4.0,88,0.00,,,0.17,156,Wunderground v.1.15,2013-03-05 18:02:00,
2013-03-05 12:03:00,27.6,24.5,30.05,NNE,17,3.0,4.0,88,0.00,,,0.17,158,Wunderground v.1.15,2013-03-05 18:03:00,
2013-03-05 12:05:00,27.6,24.5,30.04,NE,55,3.0,4.0,88,0.00,,,0.17,163,Wunderground v.1.15,2013-03-05 18:05:00,
2013-03-05 12:07:00,27.7,24.6,30.04,NNW,327,3.0,4.0,88,0.00,,,0.17,167,Wunderground v.1.15,2013-03-05 18:07:00,
2013-03-05 12:10:00,27.8,24.7,30.04,NNW,334,3.0,3.0,88,0.00,,,0.17,165,Wunderground v.1.15,2013-03-05 18:10:00,
2013-03-05 12:12:00,27.7,24.6,30.04,North,350,3.0,3.0,88,0.00,,,0.17,163,Wunderground v.1.15,2013-03-05 18:12:00,
2013-03-05 12:13:00,27.7,24.6,30.04,NNW,348,3.0,5.0,88,0.00,,,0.17,160,Wunderground v.1.15,2013-03-05 18:13:00,
2013-03-05 12:16:00,27.6,24.5,30.04,NNW,340,3.0,5.0,88,0.00,,,0.17,163,Wunderground v.1.15,2013-03-05 18:16:00,
2013-03-05 12:17:00,27.6,24.5,30.04,NNW,330,3.0,5.0,88,0.00,,,0.17,165,Wunderground v.1.15,2013-03-05 18:17:00,
2013-03-05 12:21:00,27.6,24.5,30.04,NNW,346,4.0,4.0,88,0.00,,,0.17,176,Wunderground v.1.15,2013-03-05 18:21:00,
2013-03-05 12:22:00,27.6,24.5,30.04,NNW,338,4.0,4.0,88,0.00,,,0.17,181,Wunderground v.1.15,2013-03-05 18:22:00,
2013-03-05 12:23:00,27.6,24.5,30.04,North,350,4.0,4.0,88,0.00,,,0.17,181,Wunderground v.1.15,2013-03-05 18:23:00,
2013-03-05 12:25:00,27.6,24.5,30.04,North,11,4.0,5.0,88,0.00,,,0.17,176,Wunderground v.1.15,2013-03-05 18:25:00,
2013-03-05 12:28:00,27.6,24.2,30.04,NNE,13,4.0,8.0,87,0.00,,,0.17,178,Wunderground v.1.15,2013-03-05 18:28:00,
2013-03-05 12:31:00,27.7,24.3,30.04,NNW,336,4.0,4.0,87,0.00,,,0.17,197,Wunderground v.1.15,2013-03-05 18:31:00,
2013-03-05 12:32:00,27.7,24.3,30.04,NW,305,4.0,4.0,87,0.00,,,0.17,204,Wunderground v.1.15,2013-03-05 18:32:00,
2013-03-05 12:33:00,27.7,24.3,30.04,NNE,17,4.0,4.0,87,0.00,,,0.17,209,Wunderground v.1.15,2013-03-05 18:33:00,
2013-03-05 12:36:00,27.8,24.4,30.04,NNE,13,4.0,6.0,87,0.00,,,0.17,202,Wunderground v.1.15,2013-03-05 18:36:00,
2013-03-05 12:37:00,27.8,24.4,30.04,NNW,333,4.0,6.0,87,0.00,,,0.17,199,Wunderground v.1.15,2013-03-05 18:37:00,
2013-03-05 12:40:00,27.7,24.3,30.04,NW,326,4.0,4.0,87,0.00,,,0.17,207,Wunderground v.1.15,2013-03-05 18:40:00,
2013-03-05 12:41:00,27.7,24.3,30.04,NNW,327,4.0,4.0,87,0.00,,,0.17,211,Wunderground v.1.15,2013-03-05 18:41:00,
2013-03-05 12:43:00,27.7,24.3,30.04,North,349,4.0,4.0,87,0.00,,,0.17,206,Wunderground v.1.15,2013-03-05 18:43:00,
2013-03-05 12:46:00,27.8,24.4,30.04,North,350,4.0,4.0,87,0.00,,,0.17,200,Wunderground v.1.15,2013-03-05 18:46:00,
2013-03-05 12:48:00,27.9,24.5,30.04,NNW,342,3.0,6.0,87,0.00,,,0.17,192,Wunderground v.1.15,2013-03-05 18:48:00,
2013-03-05 12:53:00,27.7,24.3,30.04,NNW,340,4.0,6.0,87,0.00,,,0.17,188,Wunderground v.1.15,2013-03-05 18:53:00,
2013-03-05 12:54:00,27.7,24.3,30.04,NNW,340,4.0,6.0,87,0.00,,,0.17,185,Wunderground v.1.15,2013-03-05 18:54:00,
2013-03-05 12:56:00,27.7,24.3,30.04,NW,323,4.0,6.0,87,0.00,,,0.17,179,Wunderground v.1.15,2013-03-05 18:56:00,
2013-03-05 13:00:00,27.6,24.5,30.04,North,355,3.0,4.0,88,0.00,,,0.18,172,Wunderground v.1.15,2013-03-05 19:00:00,
2013-03-05 13:02:00,27.5,24.1,30.04,NNW,347,3.0,6.0,87,0.00,,,0.18,178,Wunderground v.1.15,2013-03-05 19:02:00,
2013-03-05 13:04:00,27.5,24.4,30.04,NNW,347,3.0,6.0,88,0.00,,,0.18,178,Wunderground v.1.15,2013-03-05 19:04:00,
2013-03-05 13:09:00,27.6,24.5,30.04,NW,325,3.0,6.0,88,0.00,,,0.18,183,Wunderground v.1.15,2013-03-05 19:09:00,
2013-03-05 13:10:00,27.6,24.5,30.05,NNW,342,3.0,7.0,88,0.00,,,0.18,179,Wunderground v.1.15,2013-03-05 19:10:00,
2013-03-05 13:13:00,27.6,24.5,30.05,NW,315,4.0,7.0,88,0.00,,,0.18,213,Wunderground v.1.15,2013-03-05 19:13:00,
2013-03-05 13:14:00,27.6,24.5,30.05,NW,319,4.0,8.0,88,0.00,,,0.18,213,Wunderground v.1.15,2013-03-05 19:14:00,
2013-03-05 13:15:00,27.6,24.5,30.05,NW,326,4.0,8.0,88,0.00,,,0.18,234,Wunderground v.1.15,2013-03-05 19:15:00,
2013-03-05 13:17:00,27.6,24.5,30.05,NW,326,4.0,8.0,88,0.00,,,0.18,229,Wunderground v.1.15,2013-03-05 19:17:00,
2013-03-05 13:20:00,27.8,24.7,30.05,NNW,337,5.0,5.0,88,0.00,,,0.18,211,Wunderground v.1.15,2013-03-05 19:20:00,
2013-03-05 13:21:00,27.8,24.7,30.05,NNW,337,5.0,5.0,88,0.00,,,0.18,202,Wunderground v.1.15,2013-03-05 19:21:00,
2013-03-05 13:22:00,27.9,24.8,30.05,NNW,342,5.0,5.0,88,0.00,,,0.18,192,Wunderground v.1.15,2013-03-05 19:22:00,
2013-03-05 13:25:00,27.9,24.8,30.05,NW,323,4.0,6.0,88,0.00,,,0.18,186,Wunderground v.1.15,2013-03-05 19:25:00,
2013-03-05 13:26:00,27.9,24.8,30.05,North,360,4.0,6.0,88,0.00,,,0.18,178,Wunderground v.1.15,2013-03-05 19:26:00,
2013-03-05 13:30:00,27.8,24.7,30.05,North,349,5.0,5.0,88,0.00,,,0.18,160,Wunderground v.1.15,2013-03-05 19:30:00,
2013-03-05 13:34:00,27.9,24.8,30.05,NNW,335,5.0,5.0,88,0.00,,,0.18,172,Wunderground v.1.15,2013-03-05 19:34:00,
2013-03-05 13:35:00,27.8,24.7,30.05,NNW,329,5.0,5.0,88,0.00,,,0.18,169,Wunderground v.1.15,2013-03-05 19:35:00,
2013-03-05 13:36:00,27.8,24.7,30.05,NNW,342,5.0,6.0,88,0.00,,,0.18,167,Wunderground v.1.15,2013-03-05 19:36:00,
2013-03-05 13:39:00,27.8,24.7,30.05,NNW,345,4.0,6.0,88,0.00,,,0.18,162,Wunderground v.1.15,2013-03-05 19:39:00,
2013-03-05 13:41:00,27.8,24.7,30.05,NNW,329,4.0,6.0,88,0.00,,,0.18,162,Wunderground v.1.15,2013-03-05 19:41:00,
2013-03-05 13:42:00,27.9,24.8,30.05,NNW,339,4.0,6.0,88,0.00,,,0.18,169,Wunderground v.1.15,2013-03-05 19:42:00,
2013-03-05 13:43:00,27.9,24.8,30.05,NNW,344,4.0,6.0,88,0.00,,,0.18,171,Wunderground v.1.15,2013-03-05 19:43:00,
2013-03-05 13:46:00,27.9,24.5,30.05,NW,315,4.0,7.0,87,0.00,,,0.18,174,Wunderground v.1.15,2013-03-05 19:46:00,
2013-03-05 13:48:00,27.9,24.8,30.05,NW,312,5.0,7.0,88,0.00,,,0.18,162,Wunderground v.1.15,2013-03-05 19:48:00,
2013-03-05 13:49:00,28.0,24.6,30.06,NW,317,5.0,7.0,87,0.00,,,0.18,160,Wunderground v.1.15,2013-03-05 19:49:00,
2013-03-05 13:52:00,28.0,24.6,30.06,NNW,342,5.0,9.0,87,0.00,,,0.18,151,Wunderground v.1.15,2013-03-05 19:52:00,
2013-03-05 13:53:00,27.9,24.5,30.06,NNW,338,5.0,9.0,87,0.00,,,0.18,153,Wunderground v.1.15,2013-03-05 19:53:00,
2013-03-05 13:54:00,28.0,24.6,30.06,NNW,338,5.0,9.0,87,0.00,,,0.18,153,Wunderground v.1.15,2013-03-05 19:54:00,
2013-03-05 13:59:00,28.0,24.6,30.06,NNW,329,4.0,9.0,87,0.00,,,0.18,160,Wunderground v.1.15,2013-03-05 19:59:00,
2013-03-05 14:00:00,28.0,24.6,30.06,North,5,4.0,5.0,87,0.00,,,0.18,158,Wunderground v.1.15,2013-03-05 20:00:00,
2013-03-05 14:01:00,28.0,24.6,30.06,NNW,327,4.0,8.0,87,0.00,,,0.18,158,Wunderground v.1.15,2013-03-05 20:01:00,
2013-03-05 14:06:00,27.9,24.5,30.06,NW,306,5.0,8.0,87,0.00,,,0.18,202,Wunderground v.1.15,2013-03-05 20:06:00,
2013-03-05 14:07:00,28.0,24.6,30.06,NNW,340,5.0,8.0,87,0.00,,,0.18,213,Wunderground v.1.15,2013-03-05 20:07:00,
2013-03-05 14:08:00,28.0,24.9,30.06,NW,326,5.0,8.0,88,0.00,,,0.18,221,Wunderground v.1.15,2013-03-05 20:08:00,
2013-03-05 14:12:00,28.1,25.0,30.06,NNW,328,5.0,7.0,88,0.00,,,0.18,227,Wunderground v.1.15,2013-03-05 20:12:00,
2013-03-05 14:13:00,28.1,25.0,30.06,NNW,329,5.0,7.0,88,0.00,,,0.18,227,Wunderground v.1.15,2013-03-05 20:13:00,
2013-03-05 14:14:00,28.1,24.7,30.06,NNW,330,5.0,7.0,87,0.00,,,0.18,227,Wunderground v.1.15,2013-03-05 20:14:00,
2013-03-05 14:16:00,28.1,24.7,30.06,North,355,5.0,8.0,87,0.00,,,0.18,220,Wunderground v.1.15,2013-03-05 20:16:00,
2013-03-05 14:17:00,28.1,24.7,30.06,North,355,6.0,8.0,87,0.00,,,0.18,214,Wunderground v.1.15,2013-03-05 20:17:00,
2013-03-05 14:19:00,28.1,24.7,30.06,NNE,17,6.0,8.0,87,0.00,,,0.18,213,Wunderground v.1.15,2013-03-05 20:19:00,
2013-03-05 14:21:00,28.2,25.1,30.06,NNW,345,6.0,6.0,88,0.00,,,0.18,218,Wunderground v.1.15,2013-03-05 20:21:00,
2013-03-05 14:23:00,28.2,25.1,30.06,North,355,6.0,6.0,88,0.00,,,0.18,207,Wunderground v.1.15,2013-03-05 20:23:00,
2013-03-05 14:25:00,28.2,24.8,30.06,North,351,6.0,6.0,87,0.00,,,0.18,197,Wunderground v.1.15,2013-03-05 20:25:00,
2013-03-05 14:26:00,28.2,24.8,30.06,North,350,5.0,6.0,87,0.00,,,0.18,193,Wunderground v.1.15,2013-03-05 20:26:00,
2013-03-05 14:27:00,28.2,24.8,30.06,NNW,346,5.0,6.0,87,0.00,,,0.18,193,Wunderground v.1.15,2013-03-05 20:27:00,
2013-03-05 14:29:00,28.2,24.8,30.07,NW,313,5.0,6.0,87,0.00,,,0.19,183,Wunderground v.1.15,2013-03-05 20:29:00,
2013-03-05 14:32:00,28.3,25.2,30.07,NNW,336,4.0,6.0,88,0.00,,,0.19,167,Wunderground v.1.15,2013-03-05 20:32:00,
2013-03-05 14:34:00,28.3,25.2,30.07,North,355,4.0,6.0,88,0.00,,,0.19,163,Wunderground v.1.15,2013-03-05 20:34:00,
2013-03-05 14:37:00,28.2,25.1,30.07,NW,320,4.0,6.0,88,0.00,,,0.19,163,Wunderground v.1.15,2013-03-05 20:37:00,
2013-03-05 14:38:00,28.3,25.2,30.07,North,350,4.0,6.0,88,0.00,,,0.19,155,Wunderground v.1.15,2013-03-05 20:38:00,
2013-03-05 14:39:00,28.3,25.2,30.07,NNW,345,4.0,6.0,88,0.00,,,0.19,146,Wunderground v.1.15,2013-03-05 20:39:00,
2013-03-05 14:42:00,28.2,25.1,30.07,NNW,332,4.0,5.0,88,0.00,,,0.19,144,Wunderground v.1.15,2013-03-05 20:42:00,
2013-03-05 14:44:00,28.2,25.1,30.07,NNE,16,4.0,7.0,88,0.00,,,0.19,148,Wunderground v.1.15,2013-03-05 20:44:00,
2013-03-05 14:47:00,28.1,25.0,30.07,NNW,341,4.0,7.0,88,0.00,,,0.19,162,Wunderground v.1.15,2013-03-05 20:47:00,
2013-03-05 14:48:00,28.1,25.0,30.07,NNW,342,4.0,7.0,88,0.00,,,0.19,155,Wunderground v.1.15,2013-03-05 20:48:00,
2013-03-05 14:51:00,28.1,25.0,30.07,North,351,4.0,5.0,88,0.00,,,0.19,144,Wunderground v.1.15,2013-03-05 20:51:00,
2013-03-05 14:55:00,28.0,24.9,30.08,North,360,5.0,6.0,88,0.00,,,0.19,141,Wunderground v.1.15,2013-03-05 20:55:00,
2013-03-05 14:56:00,28.0,24.9,30.08,North,355,5.0,6.0,88,0.00,,,0.19,142,Wunderground v.1.15,2013-03-05 20:56:00,
2013-03-05 14:57:00,28.0,24.9,30.08,NW,322,5.0,7.0,88,0.00,,,0.19,141,Wunderground v.1.15,2013-03-05 20:57:00,
2013-03-05 15:00:00,28.0,24.6,30.08,NW,314,6.0,7.0,87,0.00,,,0.19,141,Wunderground v.1.15,2013-03-05 21:00:00,
2013-03-05 15:03:00,28.0,24.9,30.08,North,355,6.0,7.0,88,0.00,,,0.19,146,Wunderground v.1.15,2013-03-05 21:03:00,
2013-03-05 15:04:00,28.0,24.9,30.08,NNW,329,6.0,7.0,88,0.00,,,0.19,148,Wunderground v.1.15,2013-03-05 21:04:00,
2013-03-05 15:06:00,28.0,24.9,30.08,NNW,346,5.0,7.0,88,0.00,,,0.19,155,Wunderground v.1.15,2013-03-05 21:06:00,
2013-03-05 15:11:00,28.0,24.9,30.08,North,5,4.0,6.0,88,0.00,,,0.19,183,Wunderground v.1.15,2013-03-05 21:11:00,
2013-03-05 15:12:00,28.0,24.9,30.08,NNW,340,4.0,8.0,88,0.00,,,0.19,192,Wunderground v.1.15,2013-03-05 21:12:00,
2013-03-05 15:15:00,28.0,24.9,30.08,North,355,5.0,9.0,88,0.00,,,0.19,202,Wunderground v.1.15,2013-03-05 21:15:00,
2013-03-05 15:18:00,28.1,25.0,30.08,NNW,342,6.0,9.0,88,0.00,,,0.19,206,Wunderground v.1.15,2013-03-05 21:18:00,
2013-03-05 15:20:00,28.1,25.0,30.08,North,360,6.0,6.0,88,0.00,,,0.19,197,Wunderground v.1.15,2013-03-05 21:20:00,
2013-03-05 15:21:00,28.1,25.0,30.08,North,360,6.0,6.0,88,0.00,,,0.19,192,Wunderground v.1.15,2013-03-05 21:21:00,
2013-03-05 15:23:00,28.2,25.1,30.08,NNW,346,5.0,6.0,88,0.00,,,0.19,174,Wunderground v.1.15,2013-03-05 21:23:00,
2013-03-05 15:26:00,28.2,25.1,30.08,North,10,5.0,6.0,88,0.00,,,0.19,162,Wunderground v.1.15,2013-03-05 21:26:00,
2013-03-05 15:28:00,28.1,25.0,30.09,NNW,346,5.0,9.0,88,0.00,,,0.19,156,Wunderground v.1.15,2013-03-05 21:28:00,
2013-03-05 15:32:00,28.2,25.1,30.09,NNW,336,6.0,8.0,88,0.00,,,0.19,149,Wunderground v.1.15,2013-03-05 21:32:00,
2013-03-05 15:34:00,28.2,25.1,30.08,NNW,334,6.0,8.0,88,0.00,,,0.19,135,Wunderground v.1.15,2013-03-05 21:34:00,
2013-03-05 15:36:00,28.2,25.1,30.09,NNW,346,5.0,8.0,88,0.00,,,0.19,120,Wunderground v.1.15,2013-03-05 21:36:00,
2013-03-05 15:40:00,28.3,25.2,30.09,NNW,327,5.0,7.0,88,0.00,,,0.19,105,Wunderground v.1.15,2013-03-05 21:40:00,
2013-03-05 15:41:00,28.3,25.2,30.09,NNE,27,5.0,7.0,88,0.00,,,0.19,105,Wunderground v.1.15,2013-03-05 21:41:00,
2013-03-05 15:42:00,28.2,25.1,30.09,NNW,337,5.0,7.0,88,0.00,,,0.19,98,Wunderground v.1.15,2013-03-05 21:42:00,
2013-03-05 15:46:00,28.2,25.1,30.09,NNW,346,5.0,8.0,88,0.00,,,0.19,84,Wunderground v.1.15,2013-03-05 21:46:00,
2013-03-05 15:49:00,28.2,25.1,30.09,NNW,345,5.0,9.0,88,0.00,,,0.19,74,Wunderground v.1.15,2013-03-05 21:49:00,
2013-03-05 15:52:00,28.1,25.0,30.09,WNW,299,5.0,8.0,88,0.00,,,0.19,72,Wunderground v.1.15,2013-03-05 21:52:00,
2013-03-05 15:53:00,28.1,25.0,30.09,NW,308,5.0,8.0,88,0.00,,,0.19,76,Wunderground v.1.15,2013-03-05 21:53:00,
2013-03-05 15:56:00,28.1,25.0,30.10,North,5,5.0,8.0,88,0.00,,,0.19,77,Wunderground v.1.15,2013-03-05 21:56:00,
2013-03-05 15:59:00,28.1,25.3,30.10,NNW,344,4.0,8.0,89,0.00,,,0.20,83,Wunderground v.1.15,2013-03-05 21:59:00,
2013-03-05 16:00:00,28.1,25.3,30.10,NNW,344,4.0,4.0,89,0.00,,,0.20,81,Wunderground v.1.15,2013-03-05 22:00:00,
2013-03-05 16:04:00,28.1,25.3,30.10,NNW,328,3.0,4.0,89,0.00,,,0.20,79,Wunderground v.1.15,2013-03-05 22:04:00,
2013-03-05 16:05:00,28.1,25.3,30.10,NNW,329,3.0,4.0,89,0.00,,,0.20,76,Wunderground v.1.15,2013-03-05 22:05:00,
2013-03-05 16:09:00,28.0,25.2,30.10,NNW,344,3.0,5.0,89,0.00,,,0.20,90,Wunderground v.1.15,2013-03-05 22:09:00,
2013-03-05 16:11:00,28.0,25.2,30.10,NNW,333,3.0,5.0,89,0.00,,,0.20,84,Wunderground v.1.15,2013-03-05 22:11:00,
2013-03-05 16:12:00,27.9,25.1,30.10,NNW,336,3.0,5.0,89,0.00,,,0.20,84,Wunderground v.1.15,2013-03-05 22:12:00,
2013-03-05 16:16:00,28.0,25.2,30.11,NW,319,3.0,5.0,89,0.00,,,0.20,76,Wunderground v.1.15,2013-03-05 22:16:00,
2013-03-05 16:17:00,28.0,25.2,30.11,NW,325,3.0,5.0,89,0.00,,,0.20,76,Wunderground v.1.15,2013-03-05 22:17:00,
2013-03-05 16:20:00,27.9,25.1,30.11,NNW,336,3.0,3.0,89,0.00,,,0.20,77,Wunderground v.1.15,2013-03-05 22:20:00,
2013-03-05 16:23:00,27.9,25.1,30.11,NNW,336,4.0,4.0,89,0.00,,,0.20,67,Wunderground v.1.15,2013-03-05 22:23:00,
2013-03-05 16:26:00,27.9,25.1,30.11,NW,319,4.0,4.0,89,0.00,,,0.20,69,Wunderground v.1.15,2013-03-05 22:26:00,
2013-03-05 16:28:00,27.9,25.1,30.11,NW,311,4.0,4.0,89,0.00,,,0.20,69,Wunderground v.1.15,2013-03-05 22:28:00,
2013-03-05 16:29:00,27.9,25.1,30.11,NW,311,4.0,4.0,89,0.00,,,0.20,65,Wunderground v.1.15,2013-03-05 22:29:00,
2013-03-05 16:33:00,27.9,25.1,30.11,NW,319,4.0,5.0,89,0.00,,,0.20,62,Wunderground v.1.15,2013-03-05 22:33:00,
2013-03-05 16:36:00,27.9,25.1,30.11,NW,322,3.0,7.0,89,0.00,,,0.20,62,Wunderground v.1.15,2013-03-05 22:36:00,
2013-03-05 16:40:00,27.9,25.1,30.12,North,355,3.0,4.0,89,0.00,,,0.20,51,Wunderground v.1.15,2013-03-05 22:40:00,
2013-03-05 16:41:00,27.8,25.0,30.12,NW,317,3.0,4.0,89,0.00,,,0.20,47,Wunderground v.1.15,2013-03-05 22:41:00,
2013-03-05 16:42:00,27.8,25.0,30.12,NNW,340,3.0,8.0,89,0.00,,,0.20,46,Wunderground v.1.15,2013-03-05 22:42:00,
2013-03-05 16:45:00,27.8,25.0,30.12,NW,317,4.0,10.0,89,0.00,,,0.20,40,Wunderground v.1.15,2013-03-05 22:45:00,
2013-03-05 16:48:00,27.8,25.0,30.12,NNW,335,5.0,10.0,89,0.00,,,0.20,46,Wunderground v.1.15,2013-03-05 22:48:00,
2013-03-05 16:51:00,27.8,25.0,30.12,NW,324,5.0,5.0,89,0.00,,,0.20,47,Wunderground v.1.15,2013-03-05 22:51:00,
2013-03-05 16:52:00,27.8,25.0,30.12,WNW,299,5.0,5.0,89,0.00,,,0.20,47,Wunderground v.1.15,2013-03-05 22:52:00,
2013-03-05 16:54:00,27.8,25.0,30.12,WNW,288,5.0,10.0,89,0.00,,,0.20,46,Wunderground v.1.15,2013-03-05 22:54:00,
2013-03-05 16:59:00,27.7,24.9,30.13,NW,324,4.0,10.0,89,0.00,,,0.20,44,Wunderground v.1.15,2013-03-05 22:59:00,
2013-03-05 17:00:00,27.7,24.9,30.13,NNW,340,4.0,4.0,89,0.00,,,0.20,42,Wunderground v.1.15,2013-03-05 23:00:00,
2013-03-05 17:01:00,27.7,24.9,30.13,NNW,345,4.0,8.0,89,0.00,,,0.20,40,Wunderground v.1.15,2013-03-05 23:01:00,
2013-03-05 17:04:00,27.7,24.9,30.13,NW,315,4.0,8.0,89,0.00,,,0.20,42,Wunderground v.1.15,2013-03-05 23:04:00,
2013-03-05 17:07:00,27.7,24.9,30.13,NNW,336,4.0,8.0,89,0.00,,,0.20,42,Wunderground v.1.15,2013-03-05 23:07:00,
2013-03-05 17:09:00,27.7,24.9,30.13,North,351,4.0,8.0,89,0.00,,,0.20,40,Wunderground v.1.15,2013-03-05 23:09:00,
2013-03-05 17:10:00,27.7,24.9,30.13,North,351,4.0,4.0,89,0.00,,,0.20,40,Wunderground v.1.15,2013-03-05 23:10:00,
2013-03-05 17:12:00,27.7,24.9,30.14,North,351,3.0,4.0,89,0.00,,,0.21,33,Wunderground v.1.15,2013-03-05 23:12:00,
2013-03-05 17:15:00,27.6,24.8,30.14,North,351,2.0,4.0,89,0.00,,,0.21,30,Wunderground v.1.15,2013-03-05 23:15:00,
2013-03-05 17:16:00,27.6,24.8,30.14,North,351,2.0,4.0,89,0.00,,,0.21,30,Wunderground v.1.15,2013-03-05 23:16:00,
2013-03-05 17:20:00,27.6,25.1,30.14,NNW,334,1.0,3.0,90,0.00,,,0.21,23,Wunderground v.1.15,2013-03-05 23:20:00,
2013-03-05 17:21:00,27.6,25.1,30.14,NNW,330,2.0,4.0,90,0.00,,,0.21,21,Wunderground v.1.15,2013-03-05 23:21:00,
2013-03-05 17:22:00,27.6,25.1,30.14,NNW,329,2.0,4.0,90,0.00,,,0.21,21,Wunderground v.1.15,2013-03-05 23:22:00,
2013-03-05 17:24:00,27.5,25.0,30.14,North,360,3.0,4.0,90,0.00,,,0.21,19,Wunderground v.1.15,2013-03-05 23:24:00,
2013-03-05 17:26:00,27.5,25.0,30.14,NW,323,4.0,5.0,90,0.00,,,0.21,19,Wunderground v.1.15,2013-03-05 23:26:00,
2013-03-05 17:30:00,27.4,24.9,30.14,WNW,300,5.0,5.0,90,0.00,,,0.21,16,Wunderground v.1.15,2013-03-05 23:30:00,
2013-03-05 17:32:00,27.4,24.9,30.15,NW,310,5.0,5.0,90,0.00,,,0.21,12,Wunderground v.1.15,2013-03-05 23:32:00,
2013-03-05 17:34:00,27.3,24.8,30.15,NNW,333,5.0,6.0,90,0.00,,,0.21,12,Wunderground v.1.15,2013-03-05 23:34:00,
2013-03-05 17:37:00,27.2,24.7,30.15,North,355,4.0,6.0,90,0.00,,,0.21,9,Wunderground v.1.15,2013-03-05 23:37:00,
2013-03-05 17:40:00,27.2,24.7,30.15,North,5,4.0,4.0,90,0.00,,,0.21,7,Wunderground v.1.15,2013-03-05 23:40:00,
2013-03-05 17:42:00,27.1,24.6,30.15,North,5,4.0,4.0,90,0.00,,,0.21,5,Wunderground v.1.15,2013-03-05 23:42:00,
2013-03-05 17:44:00,27.1,24.6,30.15,NNW,348,4.0,4.0,90,0.00,,,0.21,0,Wunderground v.1.15,2013-03-05 23:44:00,
2013-03-05 17:45:00,27.0,24.5,30.15,NNW,348,4.0,4.0,90,0.00,,,0.21,0,Wunderground v.1.15,2013-03-05 23:45:00,
2013-03-05 17:48:00,27.0,24.5,30.15,North,349,4.0,6.0,90,0.00,,,0.21,0,Wunderground v.1.15,2013-03-05 23:48:00,
2013-03-05 17:49:00,26.9,24.4,30.15,NNW,342,4.0,6.0,90,0.00,,,0.21,0,Wunderground v.1.15,2013-03-05 23:49:00,
2013-03-05 17:50:00,26.9,24.4,30.15,NNW,333,4.0,4.0,90,0.00,,,0.21,0,Wunderground v.1.15,2013-03-05 23:50:00,
2013-03-05 17:53:00,26.8,24.3,30.15,North,350,5.0,5.0,90,0.00,,,0.21,0,Wunderground v.1.15,2013-03-05 23:53:00,
2013-03-05 17:56:00,26.9,24.4,30.16,WNW,302,5.0,5.0,90,0.00,,,0.21,0,Wunderground v.1.15,2013-03-05 23:56:00,
2013-03-05 17:58:00,26.8,24.3,30.16,NNW,337,4.0,5.0,90,0.00,,,0.21,0,Wunderground v.1.15,2013-03-05 23:58:00,
2013-03-05 17:59:00,26.8,24.3,30.16,NNW,337,4.0,5.0,90,0.00,,,0.21,0,Wunderground v.1.15,2013-03-05 23:59:00,
2013-03-05 18:01:00,26.8,24.3,30.16,NNW,337,3.0,4.0,90,0.00,,,0.21,0,Wunderground v.1.15,2013-03-06 00:01:00,
2013-03-05 18:04:00,26.7,24.2,30.16,WNW,292,3.0,4.0,90,0.00,,,0.21,0,Wunderground v.1.15,2013-03-06 00:04:00,
2013-03-05 18:05:00,26.7,24.2,30.16,NW,315,3.0,4.0,90,0.00,,,0.21,0,Wunderground v.1.15,2013-03-06 00:05:00,
2013-03-05 18:06:00,26.7,24.2,30.16,WNW,303,3.0,4.0,90,0.00,,,0.21,0,Wunderground v.1.15,2013-03-06 00:06:00,
2013-03-05 18:12:00,26.7,24.2,30.16,NNW,344,3.0,3.0,90,0.00,,,0.21,0,Wunderground v.1.15,2013-03-06 00:12:00,
2013-03-05 18:14:00,26.7,24.2,30.16,NW,321,3.0,4.0,90,0.00,,,0.21,0,Wunderground v.1.15,2013-03-06 00:14:00,
2013-03-05 18:15:00,26.6,24.1,30.16,NNW,327,2.0,7.0,90,0.00,,,0.21,0,Wunderground v.1.15,2013-03-06 00:15:00,
2013-03-05 18:18:00,26.6,24.1,30.17,NNW,340,3.0,7.0,90,0.00,,,0.21,0,Wunderground v.1.15,2013-03-06 00:18:00,
2013-03-05 18:20:00,26.6,24.1,30.17,NNW,340,3.0,3.0,90,0.00,,,0.21,0,Wunderground v.1.15,2013-03-06 00:20:00,
2013-03-05 18:21:00,26.6,24.1,30.17,NNW,336,3.0,5.0,90,0.00,,,0.21,0,Wunderground v.1.15,2013-03-06 00:21:00,
2013-03-05 18:22:00,26.6,24.1,30.17,North,355,4.0,5.0,90,0.00,,,0.21,0,Wunderground v.1.15,2013-03-06 00:22:00,
2013-03-05 18:25:00,26.6,24.1,30.17,NW,322,4.0,5.0,90,0.00,,,0.21,0,Wunderground v.1.15,2013-03-06 00:25:00,
2013-03-05 18:26:00,26.6,24.1,30.17,NNW,332,4.0,5.0,90,0.00,,,0.21,0,Wunderground v.1.15,2013-03-06 00:26:00,
2013-03-05 18:28:00,26.6,24.1,30.17,NNW,338,4.0,6.0,90,0.00,,,0.21,0,Wunderground v.1.15,2013-03-06 00:28:00,
2013-03-05 18:32:00,26.5,24.2,30.17,NNW,335,4.0,7.0,91,0.00,,,0.21,0,Wunderground v.1.15,2013-03-06 00:32:00,
2013-03-05 18:34:00,26.5,24.2,30.17,NNW,346,4.0,7.0,91,0.00,,,0.21,0,Wunderground v.1.15,2013-03-06 00:34:00,
2013-03-05 18:37:00,26.5,24.2,30.17,NNW,329,4.0,7.0,91,0.00,,,0.21,0,Wunderground v.1.15,2013-03-06 00:37:00,
2013-03-05 18:39:00,26.5,24.2,30.17,NNW,331,4.0,7.0,91,0.00,,,0.21,0,Wunderground v.1.15,2013-03-06 00:39:00,
2013-03-05 18:42:00,26.5,24.2,30.17,NNW,327,4.0,5.0,91,0.00,,,0.22,0,Wunderground v.1.15,2013-03-06 00:42:00,
2013-03-05 18:46:00,26.5,24.2,30.18,NNW,331,4.0,5.0,91,0.00,,,0.22,0,Wunderground v.1.15,2013-03-06 00:46:00,
2013-03-05 18:47:00,26.4,24.1,30.18,NNW,333,4.0,5.0,91,0.00,,,0.22,0,Wunderground v.1.15,2013-03-06 00:47:00,
2013-03-05 18:48:00,26.4,24.1,30.18,NNW,341,3.0,5.0,91,0.00,,,0.22,0,Wunderground v.1.15,2013-03-06 00:48:00,
2013-03-05 18:52:00,26.4,24.1,30.18,NW,325,3.0,5.0,91,0.00,,,0.22,0,Wunderground v.1.15,2013-03-06 00:52:00,
2013-03-05 18:55:00,26.5,24.2,30.18,NNW,344,3.0,5.0,91,0.00,,,0.22,0,Wunderground v.1.15,2013-03-06 00:55:00,
2013-03-05 18:58:00,26.4,23.9,30.18,NNW,327,4.0,5.0,90,0.00,,,0.22,0,Wunderground v.1.15,2013-03-06 00:58:00,
2013-03-05 19:00:00,26.4,23.9,30.18,NNW,348,4.0,4.0,90,0.00,,,0.22,0,Wunderground v.1.15,2013-03-06 01:00:00,
2013-03-05 19:01:00,26.4,23.9,30.18,NNW,348,4.0,4.0,90,0.00,,,0.22,0,Wunderground v.1.15,2013-03-06 01:01:00,
2013-03-05 19:03:00,26.4,23.9,30.18,NNW,330,3.0,4.0,90,0.00,,,0.22,0,Wunderground v.1.15,2013-03-06 01:03:00,
2013-03-05 19:06:00,26.4,23.9,30.18,NNW,340,3.0,4.0,90,0.00,,,0.22,0,Wunderground v.1.15,2013-03-06 01:06:00,
2013-03-05 19:09:00,26.4,23.9,30.18,NNW,336,3.0,5.0,90,0.00,,,0.22,0,Wunderground v.1.15,2013-03-06 01:09:00,
2013-03-05 19:11:00,26.4,23.9,30.18,NNW,327,2.0,5.0,90,0.00,,,0.22,0,Wunderground v.1.15,2013-03-06 01:11:00,
2013-03-05 19:12:00,26.4,23.9,30.18,NW,315,2.0,5.0,90,0.00,,,0.22,0,Wunderground v.1.15,2013-03-06 01:12:00,
2013-03-05 19:15:00,26.5,24.0,30.18,NW,316,3.0,5.0,90,0.00,,,0.22,0,Wunderground v.1.15,2013-03-06 01:15:00,
2013-03-05 19:16:00,26.5,24.0,30.18,NW,314,3.0,5.0,90,0.00,,,0.22,0,Wunderground v.1.15,2013-03-06 01:16:00,
2013-03-05 19:19:00,26.5,24.0,30.19,NW,306,3.0,5.0,90,0.00,,,0.22,0,Wunderground v.1.15,2013-03-06 01:19:00,
2013-03-05 19:20:00,26.5,24.0,30.19,NW,305,3.0,5.0,90,0.00,,,0.22,0,Wunderground v.1.15,2013-03-06 01:20:00,
2013-03-05 19:21:00,26.4,23.9,30.19,NW,321,3.0,5.0,90,0.00,,,0.22,0,Wunderground v.1.15,2013-03-06 01:21:00,
2013-03-05 19:24:00,26.5,24.0,30.19,WNW,301,3.0,5.0,90,0.00,,,0.22,0,Wunderground v.1.15,2013-03-06 01:24:00,
2013-03-05 19:27:00,26.4,23.9,30.19,WNW,300,3.0,5.0,90,0.00,,,0.22,0,Wunderground v.1.15,2013-03-06 01:27:00,
2013-03-05 19:28:00,26.4,23.6,30.19,WNW,300,2.0,5.0,89,0.00,,,0.22,0,Wunderground v.1.15,2013-03-06 01:28:00,
2013-03-05 19:31:00,26.4,23.6,30.19,NW,309,2.0,3.0,89,0.00,,,0.22,0,Wunderground v.1.15,2013-03-06 01:31:00,
2013-03-05 19:34:00,26.4,23.6,30.19,NNW,328,2.0,5.0,89,0.00,,,0.22,0,Wunderground v.1.15,2013-03-06 01:34:00,
2013-03-05 19:35:00,26.4,23.6,30.19,NW,319,2.0,5.0,89,0.00,,,0.22,0,Wunderground v.1.15,2013-03-06 01:35:00,
2013-03-05 19:37:00,26.4,23.6,30.19,NW,323,3.0,5.0,89,0.00,,,0.22,0,Wunderground v.1.15,2013-03-06 01:37:00,
2013-03-05 19:39:00,26.4,23.6,30.19,NW,322,3.0,5.0,89,0.00,,,0.22,0,Wunderground v.1.15,2013-03-06 01:39:00,
2013-03-05 19:40:00,26.4,23.6,30.19,NW,316,3.0,3.0,89,0.00,,,0.22,0,Wunderground v.1.15,2013-03-06 01:40:00,
2013-03-05 19:42:00,26.4,23.6,30.19,NW,323,3.0,7.0,89,0.00,,,0.22,0,Wunderground v.1.15,2013-03-06 01:42:00,
2013-03-05 19:44:00,26.4,23.6,30.19,WNW,290,3.0,7.0,89,0.00,,,0.22,0,Wunderground v.1.15,2013-03-06 01:44:00,
2013-03-05 19:46:00,26.4,23.6,30.20,WNW,290,3.0,7.0,89,0.00,,,0.22,0,Wunderground v.1.15,2013-03-06 01:46:00,
2013-03-05 19:48:00,26.4,23.6,30.20,WNW,290,3.0,7.0,89,0.00,,,0.22,0,Wunderground v.1.15,2013-03-06 01:48:00,
2013-03-05 19:51:00,26.4,23.6,30.20,WNW,290,3.0,4.0,89,0.00,,,0.22,0,Wunderground v.1.15,2013-03-06 01:51:00,
2013-03-05 19:52:00,26.4,23.6,30.20,WNW,288,3.0,4.0,89,0.00,,,0.22,0,Wunderground v.1.15,2013-03-06 01:52:00,
2013-03-05 19:53:00,26.4,23.6,30.20,West,279,3.0,4.0,89,0.00,,,0.22,0,Wunderground v.1.15,2013-03-06 01:53:00,
2013-03-05 19:56:00,26.5,23.7,30.20,NNW,329,3.0,4.0,89,0.00,,,0.22,0,Wunderground v.1.15,2013-03-06 01:56:00,
2013-03-05 19:57:00,26.5,23.7,30.20,NW,325,3.0,5.0,89,0.00,,,0.22,0,Wunderground v.1.15,2013-03-06 01:57:00,
2013-03-05 19:59:00,26.5,23.7,30.20,NW,321,3.0,5.0,89,0.00,,,0.22,0,Wunderground v.1.15,2013-03-06 01:59:00,
2013-03-05 20:00:00,26.5,23.7,30.20,NW,319,3.0,4.0,89,0.00,,,0.22,0,Wunderground v.1.15,2013-03-06 02:00:00,
2013-03-05 20:02:00,26.5,23.7,30.20,NW,317,3.0,5.0,89,0.00,,,0.22,0,Wunderground v.1.15,2013-03-06 02:02:00,
2013-03-05 20:05:00,26.5,23.7,30.20,West,267,3.0,5.0,89,0.00,,,0.22,0,Wunderground v.1.15,2013-03-06 02:05:00,
2013-03-05 20:08:00,26.5,23.7,30.20,NNW,329,3.0,5.0,89,0.00,,,0.22,0,Wunderground v.1.15,2013-03-06 02:08:00,
2013-03-05 20:09:00,26.5,23.7,30.20,WNW,295,3.0,5.0,89,0.00,,,0.22,0,Wunderground v.1.15,2013-03-06 02:09:00,
2013-03-05 20:11:00,26.6,23.8,30.20,WNW,301,3.0,5.0,89,0.00,,,0.22,0,Wunderground v.1.15,2013-03-06 02:11:00,
2013-03-05 20:14:00,26.6,23.8,30.21,NW,326,3.0,5.0,89,0.00,,,0.22,0,Wunderground v.1.15,2013-03-06 02:14:00,
2013-03-05 20:17:00,26.6,23.8,30.21,NW,305,3.0,5.0,89,0.00,,,0.22,0,Wunderground v.1.15,2013-03-06 02:17:00,
2013-03-05 20:20:00,26.6,23.8,30.21,NW,325,3.0,4.0,89,0.00,,,0.22,0,Wunderground v.1.15,2013-03-06 02:20:00,
2013-03-05 20:23:00,26.6,23.8,30.21,NW,304,3.0,4.0,89,0.00,,,0.22,0,Wunderground v.1.15,2013-03-06 02:23:00,
2013-03-05 20:24:00,26.6,23.8,30.21,NW,304,3.0,4.0,89,0.00,,,0.22,0,Wunderground v.1.15,2013-03-06 02:24:00,
2013-03-05 20:25:00,26.6,23.8,30.21,NW,304,3.0,4.0,89,0.00,,,0.22,0,Wunderground v.1.15,2013-03-06 02:25:00,
2013-03-05 20:29:00,26.5,23.7,30.21,NW,322,2.0,4.0,89,0.00,,,0.22,0,Wunderground v.1.15,2013-03-06 02:29:00,
2013-03-05 20:30:00,26.5,23.4,30.21,NW,311,2.0,4.0,88,0.00,,,0.22,0,Wunderground v.1.15,2013-03-06 02:30:00,
2013-03-05 20:34:00,26.5,23.4,30.21,WNW,302,2.0,4.0,88,0.00,,,0.22,0,Wunderground v.1.15,2013-03-06 02:34:00,
2013-03-05 20:37:00,26.4,23.3,30.22,NNW,343,2.0,4.0,88,0.00,,,0.22,0,Wunderground v.1.15,2013-03-06 02:37:00,
2013-03-05 20:40:00,26.2,23.1,30.22,NNW,343,2.0,2.0,88,0.00,,,0.22,0,Wunderground v.1.15,2013-03-06 02:40:00,
2013-03-05 20:42:00,26.2,23.1,30.22,NNW,343,1.0,2.0,88,0.00,,,0.22,0,Wunderground v.1.15,2013-03-06 02:42:00,
2013-03-05 20:43:00,26.1,23.0,30.22,NNW,343,1.0,2.0,88,0.00,,,0.22,0,Wunderground v.1.15,2013-03-06 02:43:00,
2013-03-05 20:45:00,26.1,23.0,30.22,WNW,300,1.0,3.0,88,0.00,,,0.22,0,Wunderground v.1.15,2013-03-06 02:45:00,
2013-03-05 20:48:00,26.0,22.9,30.22,NW,313,1.0,3.0,88,0.00,,,0.22,0,Wunderground v.1.15,2013-03-06 02:48:00,
2013-03-05 20:50:00,26.0,22.9,30.22,NW,313,1.0,1.0,88,0.00,,,0.22,0,Wunderground v.1.15,2013-03-06 02:50:00,
2013-03-05 20:51:00,25.9,22.8,30.22,NW,313,1.0,2.0,88,0.00,,,0.22,0,Wunderground v.1.15,2013-03-06 02:51:00,
2013-03-05 20:52:00,25.9,22.8,30.22,NW,313,2.0,2.0,88,0.00,,,0.22,0,Wunderground v.1.15,2013-03-06 02:52:00,
2013-03-05 20:56:00,25.8,22.7,30.22,NW,313,1.0,2.0,88,0.00,,,0.22,0,Wunderground v.1.15,2013-03-06 02:56:00,
2013-03-05 20:57:00,25.7,22.6,30.22,NW,313,1.0,3.0,88,0.00,,,0.22,0,Wunderground v.1.15,2013-03-06 02:57:00,
2013-03-05 21:00:00,25.7,22.9,30.22,NW,313,1.0,1.0,89,0.00,,,0.22,0,Wunderground v.1.15,2013-03-06 03:00:00,
2013-03-05 21:02:00,25.7,22.9,30.22,NW,313,1.0,1.0,89,0.00,,,0.22,0,Wunderground v.1.15,2013-03-06 03:02:00,
2013-03-05 21:03:00,25.6,22.8,30.23,NW,311,1.0,3.0,89,0.00,,,0.22,0,Wunderground v.1.15,2013-03-06 03:03:00,
2013-03-05 21:08:00,25.4,22.3,30.23,NW,311,1.0,3.0,88,0.00,,,0.22,0,Wunderground v.1.15,2013-03-06 03:08:00,
2013-03-05 21:09:00,25.4,22.3,30.23,NW,311,1.0,3.0,88,0.00,,,0.22,0,Wunderground v.1.15,2013-03-06 03:09:00,
2013-03-05 21:14:00,25.4,22.6,30.23,NW,310,1.0,3.0,89,0.00,,,0.22,0,Wunderground v.1.15,2013-03-06 03:14:00,
2013-03-05 21:16:00,25.4,22.6,30.23,NW,310,1.0,3.0,89,0.00,,,0.22,0,Wunderground v.1.15,2013-03-06 03:16:00,
2013-03-05 21:20:00,25.3,22.5,30.23,NW,310,1.0,1.0,89,0.00,,,0.22,0,Wunderground v.1.15,2013-03-06 03:20:00,
2013-03-05 21:22:00,25.3,22.5,30.23,NW,310,1.0,1.0,89,0.00,,,0.22,0,Wunderground v.1.15,2013-03-06 03:22:00,
2013-03-05 21:24:00,25.3,22.5,30.23,NW,310,1.0,1.0,89,0.00,,,0.22,0,Wunderground v.1.15,2013-03-06 03:24:00,
2013-03-05 21:27:00,25.3,22.5,30.23,NW,310,0.0,2.0,89,0.00,,,0.22,0,Wunderground v.1.15,2013-03-06 03:27:00,
2013-03-05 21:30:00,25.3,22.5,30.24,NW,310,0.0,0.0,89,0.00,,,0.22,0,Wunderground v.1.15,2013-03-06 03:30:00,
2013-03-05 21:33:00,25.2,22.4,30.24,NW,310,0.0,3.0,89,0.00,,,0.22,0,Wunderground v.1.15,2013-03-06 03:33:00,
2013-03-05 21:34:00,25.2,22.4,30.24,NW,310,0.0,3.0,89,0.00,,,0.22,0,Wunderground v.1.15,2013-03-06 03:34:00,
2013-03-05 21:35:00,25.2,22.4,30.24,NW,310,1.0,3.0,89,0.00,,,0.22,0,Wunderground v.1.15,2013-03-06 03:35:00,
2013-03-05 21:37:00,25.2,22.4,30.24,NW,310,1.0,3.0,89,0.00,,,0.22,0,Wunderground v.1.15,2013-03-06 03:37:00,
2013-03-05 21:39:00,25.2,22.4,30.24,NW,310,1.0,3.0,89,0.00,,,0.22,0,Wunderground v.1.15,2013-03-06 03:39:00,
2013-03-05 21:40:00,25.2,22.4,30.24,NW,310,1.0,1.0,89,0.00,,,0.22,0,Wunderground v.1.15,2013-03-06 03:40:00,
2013-03-05 21:42:00,25.2,22.4,30.24,NW,310,1.0,4.0,89,0.00,,,0.22,0,Wunderground v.1.15,2013-03-06 03:42:00,
2013-03-05 21:46:00,25.3,22.5,30.24,NW,310,1.0,4.0,89,0.00,,,0.22,0,Wunderground v.1.15,2013-03-06 03:46:00,
2013-03-05 21:48:00,25.3,22.5,30.24,NW,310,1.0,4.0,89,0.00,,,0.22,0,Wunderground v.1.15,2013-03-06 03:48:00,
2013-03-05 21:49:00,25.3,22.5,30.24,NW,310,1.0,4.0,89,0.00,,,0.22,0,Wunderground v.1.15,2013-03-06 03:49:00,
2013-03-05 21:53:00,25.4,22.6,30.24,NW,309,2.0,3.0,89,0.00,,,0.22,0,Wunderground v.1.15,2013-03-06 03:53:00,
2013-03-05 21:54:00,25.5,22.7,30.24,NW,309,2.0,3.0,89,0.00,,,0.22,0,Wunderground v.1.15,2013-03-06 03:54:00,
2013-03-05 21:58:00,25.6,22.8,30.24,NW,306,2.0,3.0,89,0.00,,,0.22,0,Wunderground v.1.15,2013-03-06 03:58:00,
2013-03-05 22:00:00,25.7,22.9,30.24,NW,306,2.0,2.0,89,0.00,,,0.22,0,Wunderground v.1.15,2013-03-06 04:00:00,
2013-03-05 22:02:00,25.7,22.9,30.24,NW,306,2.0,2.0,89,0.00,,,0.22,0,Wunderground v.1.15,2013-03-06 04:02:00,
2013-03-05 22:04:00,25.8,23.0,30.24,NW,306,2.0,2.0,89,0.00,,,0.22,0,Wunderground v.1.15,2013-03-06 04:04:00,
2013-03-05 22:05:00,25.8,23.0,30.24,NW,306,2.0,2.0,89,0.00,,,0.22,0,Wunderground v.1.15,2013-03-06 04:05:00,
2013-03-05 22:08:00,25.9,23.1,30.25,NW,307,2.0,4.0,89,0.00,,,0.22,0,Wunderground v.1.15,2013-03-06 04:08:00,
2013-03-05 22:11:00,25.9,23.1,30.25,NW,307,2.0,2.0,89,0.00,,,0.22,0,Wunderground v.1.15,2013-03-06 04:11:00,
2013-03-05 22:13:00,25.9,23.1,30.25,NW,307,2.0,2.0,89,0.00,,,0.22,0,Wunderground v.1.15,2013-03-06 04:13:00,
2013-03-05 22:16:00,26.0,23.2,30.25,WNW,303,2.0,5.0,89,0.00,,,0.22,0,Wunderground v.1.15,2013-03-06 04:16:00,
2013-03-05 22:18:00,26.0,23.2,30.25,WNW,303,2.0,5.0,89,0.00,,,0.22,0,Wunderground v.1.15,2013-03-06 04:18:00,
2013-03-05 22:20:00,26.0,23.2,30.25,WNW,303,2.0,2.0,89,0.00,,,0.22,0,Wunderground v.1.15,2013-03-06 04:20:00,
2013-03-05 22:22:00,26.0,23.2,30.25,WSW,248,2.0,4.0,89,0.00,,,0.22,0,Wunderground v.1.15,2013-03-06 04:22:00,
2013-03-05 22:24:00,26.0,23.2,30.25,NW,306,2.0,7.0,89,0.00,,,0.22,0,Wunderground v.1.15,2013-03-06 04:24:00,
2013-03-05 22:25:00,25.9,23.1,30.25,West,277,2.0,7.0,89,0.00,,,0.22,0,Wunderground v.1.15,2013-03-06 04:25:00,
2013-03-05 22:28:00,25.9,22.8,30.25,WNW,298,3.0,7.0,88,0.00,,,0.22,0,Wunderground v.1.15,2013-03-06 04:28:00,
2013-03-05 22:31:00,25.9,22.8,30.25,WNW,300,3.0,3.0,88,0.00,,,0.22,0,Wunderground v.1.15,2013-03-06 04:31:00,
2013-03-05 22:33:00,25.9,22.8,30.25,NNE,22,3.0,3.0,88,0.00,,,0.22,0,Wunderground v.1.15,2013-03-06 04:33:00,
2013-03-05 22:35:00,25.9,22.8,30.25,NW,308,2.0,3.0,88,0.00,,,0.22,0,Wunderground v.1.15,2013-03-06 04:35:00,
2013-03-05 22:36:00,25.9,22.8,30.25,NW,307,2.0,3.0,88,0.00,,,0.22,0,Wunderground v.1.15,2013-03-06 04:36:00,
2013-03-05 22:40:00,25.8,22.7,30.25,WNW,300,1.0,5.0,88,0.00,,,0.22,0,Wunderground v.1.15,2013-03-06 04:40:00,
2013-03-05 22:41:00,25.8,22.7,30.25,WNW,300,2.0,5.0,88,0.00,,,0.22,0,Wunderground v.1.15,2013-03-06 04:41:00,
2013-03-05 22:44:00,25.8,22.7,30.25,WNW,300,1.0,5.0,88,0.00,,,0.22,0,Wunderground v.1.15,2013-03-06 04:44:00,
2013-03-05 22:45:00,25.8,22.7,30.25,WNW,298,1.0,5.0,88,0.00,,,0.22,0,Wunderground v.1.15,2013-03-06 04:45:00,
2013-03-05 22:50:00,25.8,22.7,30.26,WNW,300,2.0,2.0,88,0.00,,,0.22,0,Wunderground v.1.15,2013-03-06 04:50:00,
2013-03-05 22:51:00,25.8,22.7,30.26,WNW,300,2.0,2.0,88,0.00,,,0.22,0,Wunderground v.1.15,2013-03-06 04:51:00,
2013-03-05 22:54:00,25.8,22.7,30.26,NNW,329,3.0,8.0,88,0.00,,,0.22,0,Wunderground v.1.15,2013-03-06 04:54:00,
2013-03-05 22:55:00,25.8,22.7,30.26,NNW,329,3.0,8.0,88,0.00,,,0.22,0,Wunderground v.1.15,2013-03-06 04:55:00,
2013-03-05 23:00:00,25.8,22.7,30.26,WNW,298,2.0,2.0,88,0.00,,,0.22,0,Wunderground v.1.15,2013-03-06 05:00:00,
2013-03-05 23:01:00,25.8,22.7,30.26,NW,315,2.0,3.0,88,0.00,,,0.22,0,Wunderground v.1.15,2013-03-06 05:01:00,
2013-03-05 23:02:00,25.7,22.6,30.26,NNW,333,2.0,3.0,88,0.00,,,0.22,0,Wunderground v.1.15,2013-03-06 05:02:00,
2013-03-05 23:03:00,25.7,22.6,30.26,NW,325,2.0,3.0,88,0.00,,,0.22,0,Wunderground v.1.15,2013-03-06 05:03:00,
2013-03-05 23:05:00,25.7,22.6,30.26,NW,319,2.0,3.0,88,0.00,,,0.22,0,Wunderground v.1.15,2013-03-06 05:05:00,
2013-03-05 23:09:00,25.7,22.6,30.26,NW,312,2.0,4.0,88,0.00,,,0.22,0,Wunderground v.1.15,2013-03-06 05:09:00,
2013-03-05 23:11:00,25.7,22.6,30.26,NW,315,3.0,6.0,88,0.00,,,0.22,0,Wunderground v.1.15,2013-03-06 05:11:00,
2013-03-05 23:12:00,25.7,22.6,30.26,WNW,298,3.0,6.0,88,0.00,,,0.22,0,Wunderground v.1.15,2013-03-06 05:12:00,
2013-03-05 23:16:00,25.7,22.6,30.26,WNW,290,4.0,7.0,88,0.00,,,0.22,0,Wunderground v.1.15,2013-03-06 05:16:00,
2013-03-05 23:18:00,25.6,22.5,30.27,WNW,300,4.0,7.0,88,0.00,,,0.22,0,Wunderground v.1.15,2013-03-06 05:18:00,
2013-03-05 23:20:00,25.7,22.6,30.27,NNW,346,4.0,6.0,88,0.00,,,0.22,0,Wunderground v.1.15,2013-03-06 05:20:00,
2013-03-05 23:21:00,25.6,22.5,30.27,North,5,4.0,6.0,88,0.00,,,0.22,0,Wunderground v.1.15,2013-03-06 05:21:00,
2013-03-05 23:22:00,25.6,22.5,30.27,NNE,15,4.0,6.0,88,0.00,,,0.22,0,Wunderground v.1.15,2013-03-06 05:22:00,
2013-03-05 23:24:00,25.6,22.5,30.27,NW,304,4.0,6.0,88,0.00,,,0.22,0,Wunderground v.1.15,2013-03-06 05:24:00,
2013-03-05 23:27:00,25.6,22.5,30.27,WNW,288,4.0,6.0,88,0.00,,,0.22,0,Wunderground v.1.15,2013-03-06 05:27:00,
2013-03-05 23:32:00,25.6,22.5,30.27,WNW,299,4.0,4.0,88,0.00,,,0.22,0,Wunderground v.1.15,2013-03-06 05:32:00,
2013-03-05 23:33:00,25.6,22.5,30.27,WNW,299,3.0,4.0,88,0.00,,,0.22,0,Wunderground v.1.15,2013-03-06 05:33:00,
2013-03-05 23:34:00,25.6,22.5,30.27,WNW,299,3.0,4.0,88,0.00,,,0.22,0,Wunderground v.1.15,2013-03-06 05:34:00,
2013-03-05 23:36:00,25.6,22.5,30.27,NW,317,3.0,4.0,88,0.00,,,0.22,0,Wunderground v.1.15,2013-03-06 05:36:00,
2013-03-05 23:40:00,25.5,22.4,30.27,NW,317,2.0,2.0,88,0.00,,,0.22,0,Wunderground v.1.15,2013-03-06 05:40:00,
2013-03-05 23:41:00,25.5,22.4,30.27,WNW,295,2.0,3.0,88,0.00,,,0.22,0,Wunderground v.1.15,2013-03-06 05:41:00,
2013-03-05 23:42:00,25.5,22.4,30.27,NW,314,3.0,4.0,88,0.00,,,0.22,0,Wunderground v.1.15,2013-03-06 05:42:00,
2013-03-05 23:45:00,25.5,22.4,30.27,NW,316,3.0,4.0,88,0.00,,,0.22,0,Wunderground v.1.15,2013-03-06 05:45:00,
2013-03-05 23:48:00,25.5,22.4,30.27,West,277,2.0,4.0,88,0.00,,,0.22,0,Wunderground v.1.15,2013-03-06 05:48:00,
2013-03-05 23:49:00,25.4,22.3,30.27,West,280,2.0,4.0,88,0.00,,,0.22,0,Wunderground v.1.15,2013-03-06 05:49:00,
2013-03-05 23:50:00,25.4,22.3,30.27,NNW,333,2.0,2.0,88,0.00,,,0.22,0,Wunderground v.1.15,2013-03-06 05:50:00,
2013-03-05 23:53:00,25.4,22.3,30.27,NW,310,2.0,6.0,88,0.00,,,0.22,0,Wunderground v.1.15,2013-03-06 05:53:00,
2013-03-05 23:55:00,25.3,22.2,30.27,NW,306,2.0,6.0,88,0.00,,,0.22,0,Wunderground v.1.15,2013-03-06 05:55:00,
2013-03-05 23:58:00,25.2,22.1,30.27,NW,315,3.0,6.0,88,0.00,,,0.22,0,Wunderground v.1.15,2013-03-06 05:58:00,
2013-03-05 23:59:00,25.2,22.1,30.27,NW,313,3.0,6.0,88,0.00,,,0.22,0,Wunderground v.1.15,2013-03-06 05:59:00,